[[{"header":{"parameterUnit":"m.s-1","parameterCategory":1,"la1":30.6,"la2":29.2853,"lo1":-89.7004,"lo2":-87.6739,"dy":0.0162,"dx":0.0183,"nx":112,"ny":82,"refTime":"2023-03-01T06:00:00:Z","depth":0,"parameterNumber":2,"parameterNumberName":"U-component_of_WINDS"},"data":[0.0,0.0,0.0,0.0,0.0,0.0,0.0,0.0,0.0,0.0,0.0,0.0,0.0,0.0,0.0,0.0,0.0,0.0,0.0,0.0,0.0,0.0,0.0,0.0,0.0,0.0,0.0,0.0,0.0,0.0,0.0,0.0,0.0,0.0,0.0,0.0,0.0,0.0,0.0,0.0,0.0,0.0,0.0,0.0,0.0,0.0,0.0,0.0,0.0,0.0,0.0,0.0,0.0,0.0,0.0,0.0,0.0,0.0,0.0,0.0,0.0,0.0,0.0,0.0,0.0,0.0,0.0,0.0,0.0,0.0,0.0,0.0,0.0,0.0,0.0,0.0,0.0,0.0,0.0,0.0,0.0,0.0,0.0,0.0,0.0,0.0,0.0,0.0,0.0,0.0,0.0,3.2767,3.437,3.5424,3.5294,3.3768,3.2942,3.3251,0.0,0.0,0.0,0.0,0.0,0.0,0.0,0.0,0.0,0.0,0.0,0.0,0.0,0.0,0.0,0.0,0.0,0.0,0.0,0.0,0.0,0.0,0.0,0.0,0.0,0.0,0.0,0.0,0.0,0.0,0.0,0.0,0.0,0.0,0.0,0.0,0.0,0.0,0.0,0.0,0.0,0.0,0.0,0.0,0.0,0.0,0.0,0.0,0.0,0.0,0.0,0.0,0.0,0.0,0.0,0.0,0.0,0.0,0.0,0.0,0.0,0.0,0.0,0.0,0.0,0.0,0.0,0.0,0.0,0.0,0.0,0.0,0.0,0.0,0.0,0.0,0.0,0.0,0.0,0.0,0.0,0.0,0.0,0.0,0.0,0.0,0.0,0.0,0.0,0.0,0.0,0.0,0.0,0.0,0.0,0.0,0.0,0.0,0.0,0.0,0.0,0.0,0.0,0.0,3.3887,3.4893,3.5289,3.5149,3.4295,3.3945,3.3377,3.2372,0.0,0.0,0.0,0.0,0.0,0.0,0.0,0.0,0.0,0.0,0.0,0.0,0.0,0.0,0.0,0.0,0.0,0.0,0.0,0.0,0.0,0.0,0.0,0.0,0.0,0.0,0.0,0.0,0.0,0.0,0.0,0.0,0.0,0.0,0.0,0.0,0.0,0.0,0.0,0.0,0.0,0.0,0.0,0.0,0.0,0.0,0.0,0.0,0.0,0.0,0.0,0.0,0.0,0.0,0.0,0.0,0.0,0.0,0.0,0.0,0.0,0.0,0.0,0.0,0.0,0.0,0.0,0.0,0.0,0.0,0.0,0.0,0.0,0.0,0.0,0.0,0.0,0.0,0.0,0.0,0.0,0.0,0.0,0.0,0.0,0.0,0.0,0.0,0.0,0.0,0.0,0.0,0.0,0.0,0.0,0.0,0.0,0.0,0.0,0.0,0.0,0.0,0.0,3.3637,3.4345,3.5597,3.5727,3.5525,3.5078,3.3988,3.3045,3.2358,3.0246,0.0,0.0,0.0,0.0,0.0,0.0,0.0,0.0,0.0,0.0,0.0,0.0,0.0,0.0,0.0,0.0,0.0,0.0,0.0,0.0,0.0,0.0,0.0,0.0,0.0,0.0,0.0,0.0,0.0,0.0,0.0,0.0,0.0,0.0,0.0,0.0,0.0,0.0,0.0,0.0,0.0,0.0,0.0,0.0,0.0,0.0,0.0,0.0,0.0,0.0,0.0,0.0,0.0,0.0,0.0,0.0,0.0,0.0,0.0,0.0,0.0,0.0,0.0,0.0,0.0,0.0,0.0,0.0,0.0,0.0,0.0,0.0,0.0,0.0,0.0,0.0,0.0,0.0,0.0,0.0,0.0,0.0,0.0,0.0,0.0,0.0,0.0,0.0,0.0,0.0,0.0,0.0,0.0,0.0,0.0,0.0,0.0,0.0,0.0,0.0,0.0,0.0,3.4318,3.483,3.5449,3.5744,3.5708,3.5205,3.3695,3.2619,3.2164,3.0665,0.0,0.0,0.0,0.0,0.0,0.0,0.0,0.0,0.0,0.0,0.0,0.0,0.0,0.0,0.0,0.0,0.0,0.0,0.0,0.0,0.0,0.0,0.0,0.0,0.0,0.0,0.0,0.0,0.0,0.0,0.0,0.0,0.0,0.0,0.0,0.0,0.0,0.0,0.0,0.0,0.0,0.0,0.0,0.0,0.0,0.0,0.0,0.0,0.0,0.0,0.0,0.0,0.0,0.0,0.0,0.0,0.0,0.0,0.0,0.0,0.0,0.0,0.0,0.0,0.0,0.0,0.0,0.0,0.0,0.0,0.0,0.0,0.0,0.0,0.0,0.0,0.0,0.0,0.0,0.0,0.0,0.0,0.0,0.0,0.0,0.0,0.0,0.0,0.0,0.0,0.0,0.0,0.0,0.0,0.0,0.0,0.0,0.0,0.0,0.0,0.0,0.0,3.5008,3.5412,3.4519,3.5307,3.5113,3.3175,3.2889,3.2311,3.1172,3.0266,0.0,0.0,0.0,0.0,0.0,0.0,0.0,0.0,0.0,0.0,0.0,0.0,0.0,0.0,0.0,0.0,0.0,0.0,0.0,0.0,0.0,0.0,0.0,0.0,0.0,0.0,0.0,0.0,0.0,0.0,0.0,0.0,0.0,0.0,0.0,0.0,0.0,0.0,0.0,0.0,0.0,0.0,0.0,0.0,0.0,0.0,0.0,0.0,0.0,0.0,0.0,0.0,0.0,0.0,0.0,0.0,0.0,0.0,0.0,0.0,0.0,0.0,0.0,0.0,0.0,0.0,0.0,0.0,0.0,0.0,0.0,0.0,0.0,0.0,0.0,0.0,0.0,0.0,0.0,0.0,0.0,0.0,0.0,0.0,0.0,0.0,0.0,0.0,0.0,0.0,0.0,0.0,0.0,0.0,0.0,0.0,0.0,0.0,0.0,0.0,0.0,0.0,3.4565,3.5277,0.0,3.491,3.4831,3.4031,3.3369,3.2495,3.1326,0.0,0.0,0.0,0.0,0.0,0.0,0.0,0.0,0.0,0.0,0.0,0.0,0.0,0.0,0.0,0.0,0.0,0.0,0.0,0.0,0.0,0.0,0.0,0.0,0.0,0.0,0.0,0.0,0.0,0.0,0.0,0.0,0.0,0.0,0.0,0.0,0.0,0.0,0.0,0.0,0.0,0.0,0.0,0.0,0.0,0.0,0.0,0.0,0.0,0.0,0.0,0.0,0.0,0.0,0.0,0.0,0.0,0.0,0.0,0.0,0.0,0.0,0.0,0.0,0.0,0.0,0.0,0.0,0.0,0.0,0.0,0.0,0.0,0.0,0.0,0.0,0.0,0.0,0.0,0.0,0.0,0.0,0.0,0.0,0.0,0.0,0.0,0.0,0.0,0.0,0.0,0.0,0.0,0.0,0.0,0.0,0.0,0.0,0.0,0.0,0.0,0.0,3.2744,3.4144,3.4868,0.0,3.4511,3.4573,3.4199,3.3513,3.2612,3.1482,0.0,0.0,0.0,0.0,0.0,0.0,0.0,0.0,0.0,0.0,0.0,0.0,0.0,0.0,0.0,0.0,0.0,0.0,0.0,0.0,0.0,0.0,0.0,0.0,0.0,0.0,0.0,0.0,0.0,0.0,0.0,0.0,0.0,0.0,0.0,0.0,0.0,0.0,0.0,0.0,0.0,0.0,0.0,0.0,0.0,0.0,0.0,0.0,0.0,0.0,0.0,0.0,0.0,0.0,0.0,0.0,0.0,0.0,0.0,0.0,0.0,0.0,0.0,0.0,0.0,0.0,0.0,0.0,0.0,0.0,0.0,0.0,0.0,0.0,0.0,0.0,0.0,0.0,0.0,0.0,0.0,0.0,0.0,0.0,0.0,0.0,0.0,0.0,0.0,0.0,0.0,0.0,0.0,0.0,0.0,0.0,0.0,0.0,0.0,0.0,0.0,0.0,3.2653,3.3897,3.4262,3.3219,3.4058,3.4241,3.3197,3.309,3.2612,0.0,0.0,0.0,0.0,0.0,0.0,0.0,0.0,0.0,0.0,0.0,0.0,0.0,0.0,0.0,0.0,0.0,0.0,0.0,0.0,0.0,0.0,0.0,0.0,0.0,0.0,0.0,0.0,0.0,0.0,0.0,0.0,0.0,0.0,0.0,0.0,0.0,0.0,0.0,0.0,0.0,0.0,0.0,0.0,0.0,0.0,0.0,0.0,0.0,0.0,0.0,0.0,0.0,0.0,0.0,0.0,0.0,0.0,0.0,0.0,0.0,0.0,0.0,0.0,0.0,0.0,0.0,0.0,0.0,0.0,0.0,0.0,0.0,0.0,0.0,0.0,0.0,0.0,0.0,0.0,0.0,0.0,0.0,0.0,0.0,0.0,0.0,0.0,0.0,0.0,0.0,0.0,0.0,0.0,0.0,0.0,0.0,0.0,0.0,0.0,0.0,0.0,0.0,3.1787,3.2842,3.345,3.3133,3.3364,3.3428,3.3133,3.309,3.2612,3.1482,0.0,0.0,0.0,0.0,0.0,0.0,0.0,0.0,0.0,0.0,0.0,0.0,0.0,0.0,0.0,0.0,0.0,0.0,0.0,0.0,0.0,0.0,0.0,0.0,0.0,0.0,0.0,0.0,0.0,0.0,0.0,0.0,0.0,0.0,0.0,0.0,0.0,0.0,0.0,0.0,0.0,0.0,0.0,0.0,0.0,0.0,0.0,0.0,0.0,0.0,0.0,0.0,0.0,0.0,0.0,0.0,0.0,0.0,0.0,0.0,0.0,0.0,0.0,0.0,0.0,0.0,0.0,0.0,0.0,0.0,0.0,0.0,0.0,0.0,0.0,0.0,0.0,0.0,0.0,0.0,0.0,0.0,0.0,0.0,0.0,0.0,0.0,0.0,0.0,0.0,0.0,0.0,0.0,0.0,0.0,0.0,0.0,0.0,0.0,0.0,0.0,0.0,3.1687,3.2537,3.309,3.309,3.309,3.309,3.309,3.309,3.2713,3.1788,0.0,0.0,0.0,0.0,0.0,0.0,0.0,0.0,0.0,0.0,0.0,0.0,0.0,0.0,0.0,0.0,0.0,0.0,0.0,0.0,0.0,0.0,0.0,0.0,0.0,0.0,0.0,0.0,0.0,0.0,0.0,0.0,0.0,0.0,0.0,0.0,0.0,0.0,0.0,0.0,0.0,0.0,0.0,0.0,0.0,0.0,0.0,0.0,0.0,0.0,0.0,0.0,0.0,0.0,0.0,0.0,0.0,0.0,0.0,0.0,0.0,0.0,0.0,0.0,0.0,0.0,0.0,0.0,0.0,0.0,0.0,0.0,0.0,0.0,0.0,0.0,0.0,0.0,0.0,0.0,0.0,0.0,0.0,0.0,0.0,0.0,0.0,0.0,0.0,0.0,0.0,0.0,0.0,0.0,0.0,0.0,0.0,0.0,0.0,0.0,0.0,0.0,3.2215,3.2842,3.3266,3.3266,3.3266,3.3266,3.3266,3.3266,3.2993,3.2416,0.0,0.0,0.0,0.0,0.0,0.0,0.0,0.0,0.0,0.0,0.0,0.0,0.0,0.0,0.0,0.0,0.0,0.0,0.0,0.0,0.0,0.0,0.0,0.0,0.0,0.0,0.0,0.0,0.0,0.0,0.0,0.0,0.0,0.0,0.0,0.0,0.0,0.0,0.0,0.0,0.0,0.0,0.0,0.0,0.0,0.0,0.0,0.0,0.0,0.0,0.0,0.0,0.0,0.0,0.0,0.0,0.0,0.0,0.0,0.0,3.0758,0.0,0.0,0.0,0.0,0.0,0.0,0.0,0.0,0.0,0.0,0.0,0.0,0.0,0.0,0.0,0.0,0.0,0.0,0.0,0.0,0.0,0.0,0.0,0.0,0.0,0.0,0.0,0.0,0.0,0.0,0.0,0.0,0.0,0.0,0.0,0.0,0.0,0.0,0.0,0.0,0.0,3.2889,3.3746,3.4374,3.4374,3.4374,3.4374,3.4374,3.4374,3.4101,3.3571,3.342,0.0,0.0,0.0,0.0,0.0,0.0,0.0,0.0,0.0,0.0,0.0,0.0,0.0,0.0,0.0,0.0,0.0,0.0,0.0,0.0,0.0,0.0,0.0,0.0,0.0,0.0,0.0,0.0,0.0,0.0,0.0,0.0,0.0,0.0,0.0,0.0,0.0,0.0,0.0,0.0,0.0,0.0,0.0,0.0,0.0,0.0,0.0,0.0,0.0,0.0,0.0,0.0,0.0,0.0,0.0,0.0,0.0,0.0,0.0,0.0,3.1115,0.0,0.0,0.0,0.0,0.0,0.0,0.0,0.0,0.0,0.0,0.0,0.0,0.0,0.0,0.0,0.0,0.0,0.0,0.0,0.0,0.0,0.0,0.0,0.0,0.0,0.0,0.0,0.0,0.0,0.0,0.0,0.0,0.0,0.0,0.0,0.0,0.0,0.0,0.0,0.0,3.3467,3.4198,3.4703,3.4703,3.4703,3.4703,3.4703,3.4703,3.4577,3.4276,3.4048,0.0,0.0,0.0,0.0,0.0,0.0,0.0,0.0,0.0,0.0,0.0,0.0,0.0,0.0,0.0,0.0,0.0,0.0,0.0,0.0,0.0,0.0,0.0,0.0,0.0,0.0,0.0,0.0,0.0,0.0,0.0,0.0,0.0,0.0,0.0,0.0,0.0,0.0,0.0,0.0,0.0,0.0,0.0,0.0,0.0,0.0,0.0,0.0,0.0,0.0,0.0,0.0,0.0,3.2013,3.246,3.3391,3.3391,3.3621,3.3972,3.2566,3.2164,3.242,0.0,0.0,0.0,0.0,0.0,0.0,0.0,0.0,0.0,0.0,0.0,0.0,0.0,0.0,0.0,0.0,0.0,0.0,0.0,0.0,0.0,0.0,0.0,0.0,0.0,3.4019,3.4198,0.0,0.0,0.0,0.0,0.0,0.0,0.0,0.0,0.0,0.0,0.0,0.0,3.4123,3.4675,3.5002,3.5002,3.5002,3.5002,3.5002,3.5002,3.5002,3.5002,3.4575,3.4299,0.0,0.0,0.0,0.0,0.0,0.0,0.0,0.0,0.0,0.0,0.0,0.0,0.0,0.0,0.0,0.0,0.0,0.0,0.0,0.0,0.0,0.0,0.0,0.0,0.0,0.0,0.0,0.0,0.0,0.0,0.0,0.0,2.4382,2.45,0.0,0.0,0.0,0.0,0.0,0.0,0.0,0.0,0.0,0.0,0.0,0.0,0.0,2.924,2.9308,2.8737,2.9633,3.193,3.1344,3.2276,3.4477,3.4477,3.4527,3.4577,3.4352,0.0,3.3671,3.352,0.0,0.0,0.0,0.0,0.0,0.0,0.0,0.0,0.0,0.0,0.0,0.0,0.0,0.0,0.0,0.0,0.0,0.0,0.0,0.0,0.0,0.0,3.5954,3.5954,3.6028,3.6053,0.0,3.4823,3.3897,3.4301,3.4377,0.0,0.0,0.0,0.0,0.0,0.0,0.0,3.5207,3.5805,3.618,3.618,3.618,3.618,3.618,3.618,3.618,3.618,3.6105,3.5854,3.5307,3.4778,0.0,0.0,0.0,0.0,0.0,0.0,0.0,0.0,0.0,0.0,0.0,0.0,0.0,0.0,0.0,0.0,0.0,0.0,0.0,0.0,0.0,0.0,0.0,0.0,0.0,0.0,0.0,0.0,0.0,2.4274,2.4512,2.4746,2.4652,2.4602,0.0,0.0,0.0,0.0,0.0,0.0,0.0,0.0,0.0,2.9498,2.952,2.9653,2.9943,2.9663,3.0601,3.2794,3.2486,3.3505,3.5678,3.5678,3.5678,3.5678,3.5678,3.5527,3.5225,3.4274,3.3596,3.3144,0.0,0.0,0.0,0.0,3.2713,3.2817,3.3696,3.3997,0.0,3.3674,0.0,0.0,0.0,0.0,0.0,0.0,0.0,0.0,0.0,0.0,3.5981,3.6306,3.6405,3.6405,3.6405,3.5803,3.5253,0.0,3.4904,3.4527,3.3997,0.0,0.0,0.0,0.0,3.5232,3.5458,3.6031,3.6405,3.6405,3.6405,3.6405,3.6405,3.6405,3.6405,3.6405,3.6405,3.6281,3.6006,3.5456,3.4929,0.0,0.0,0.0,0.0,0.0,0.0,0.0,0.0,0.0,0.0,0.0,0.0,0.0,0.0,0.0,0.0,0.0,0.0,0.0,0.0,0.0,0.0,0.0,0.0,0.0,0.0,0.0,0.0,2.4785,2.5,2.5239,2.5356,2.5258,0.0,0.0,0.0,0.0,0.0,0.0,2.7311,2.8452,2.9232,2.9488,2.9488,2.9685,3.0076,3.0447,3.1312,3.2678,3.3382,3.4486,3.5882,3.6239,3.6405,3.6405,3.6405,3.6405,3.6281,3.505,3.4449,3.4274,3.3872,3.3621,3.3542,3.3646,3.3696,3.3847,3.4801,3.513,3.5127,3.4954,0.0,3.5157,3.4502,0.0,0.0,0.0,0.0,3.5029,3.5581,3.5732,3.5832,3.6281,3.6405,3.6405,3.6405,3.6281,3.6081,0.0,3.5406,3.4977,3.4377,0.0,0.0,0.0,0.0,3.5558,3.5707,3.613,3.6405,3.6405,3.6405,3.6405,3.6405,3.6405,3.6405,3.6405,3.6405,3.6405,3.6405,3.5981,3.5656,3.5508,0.0,0.0,0.0,0.0,0.0,0.0,0.0,0.0,0.0,0.0,0.0,0.0,0.0,0.0,0.0,0.0,0.0,0.0,0.0,0.0,0.0,0.0,0.0,0.0,0.0,0.0,0.0,0.0,0.0,2.5718,2.6074,0.0,0.0,0.0,0.0,2.5679,2.7227,2.7828,2.7041,2.8589,2.9147,2.8403,2.837,2.8389,2.8436,2.9693,3.0369,3.0493,3.3107,3.441,3.4532,3.581,3.6405,3.6405,3.6405,3.6405,3.6405,3.6304,3.5931,3.5408,3.5382,3.5079,3.4678,3.5182,3.5382,3.5481,3.6105,3.6329,3.6205,3.5656,3.5132,3.4828,3.5282,3.5082,0.0,0.0,3.5458,3.5606,3.6205,3.6331,3.638,3.6405,3.6405,3.6405,3.6405,3.5956,3.5707,0.0,3.6331,3.613,3.5531,0.0,3.5458,3.5408,3.5458,3.5707,3.6281,3.638,3.6405,3.6405,3.6405,3.6405,3.6405,3.6405,3.6405,3.6405,3.6405,3.6405,3.6405,3.638,3.6081,3.5508,3.5483,0.0,0.0,0.0,0.0,0.0,0.0,0.0,0.0,0.0,0.0,0.0,0.0,0.0,0.0,0.0,0.0,0.0,0.0,0.0,0.0,0.0,0.0,0.0,0.0,0.0,0.0,0.0,0.0,2.6557,2.6953,0.0,2.6576,2.6816,2.6973,2.6973,2.7782,2.8151,2.7858,2.8417,2.8582,2.8308,2.8301,2.8301,2.8301,2.8767,2.946,3.0307,3.1286,3.268,3.441,3.4896,3.5595,3.6405,3.6405,3.6405,3.6405,3.6405,3.6256,3.6081,3.6081,3.5979,3.5828,3.6029,3.6081,3.613,3.6331,3.6405,3.638,3.6155,3.5931,3.5828,3.6006,3.5954,3.5828,3.6029,3.6081,3.6207,3.6783,3.6909,3.7009,3.7361,3.7412,3.7412,3.7412,3.7262,3.7162,3.7387,3.6558,3.5881,3.6031,3.6358,3.6609,3.6609,3.6886,3.7211,3.7387,3.7135,3.6909,3.6909,3.6607,3.6405,3.6405,3.6405,3.6405,3.6405,3.6405,3.6405,3.6405,3.6405,3.6306,3.6081,3.6081,3.5629,0.0,0.0,0.0,0.0,0.0,0.0,0.0,0.0,0.0,0.0,0.0,0.0,0.0,0.0,0.0,0.0,0.0,0.0,0.0,0.0,0.0,0.0,0.0,0.0,0.0,0.0,2.7187,2.7006,2.7519,2.7741,2.7285,2.7643,2.7897,2.7897,2.8151,2.8301,2.8301,2.8301,2.8301,2.8301,2.8301,2.8359,2.8496,2.8979,2.95,3.0069,3.0979,3.241,3.4212,3.4661,3.5624,3.6934,3.6934,3.6934,3.6934,3.6934,3.6934,3.6909,3.6532,3.6405,3.6405,3.6405,3.6507,3.6683,3.6884,3.6934,3.6934,3.6934,3.6934,3.6934,3.6934,3.6934,3.6934,3.6934,3.6934,3.7034,3.7386,3.7462,3.7563,3.7914,3.8015,3.8015,3.8015,3.8015,3.8015,3.8015,3.7087,3.6459,3.6884,3.7235,3.7387,3.7235,3.7663,3.7939,3.7739,3.7563,3.7462,3.7462,3.716,3.6934,3.6934,3.6758,3.6733,3.6934,3.6758,3.6758,3.6934,3.6582,3.6505,3.6658,3.6482,3.5929,3.4979,0.0,0.0,0.0,0.0,0.0,0.0,0.0,0.0,0.0,0.0,0.0,0.0,0.0,0.0,0.0,0.0,0.0,0.0,0.0,0.0,0.0,0.0,0.0,2.709,2.7402,2.7545,2.7109,2.7793,2.8151,2.7761,2.8073,2.8301,2.8301,2.8301,2.832,2.832,2.832,2.834,2.834,2.834,2.8535,2.8918,3.0267,3.0492,2.9626,3.2239,3.3572,3.3783,3.5085,3.6465,3.7841,3.7841,3.7891,3.7941,3.7941,3.7965,3.7889,3.6859,3.6455,3.6455,3.6455,3.6783,3.7311,3.7814,3.8015,3.8015,3.8015,3.8015,3.8015,3.8015,3.8015,3.8015,3.8015,3.8015,3.8015,3.804,3.804,3.804,3.8065,3.8065,3.8065,3.8065,3.8065,3.8065,3.8065,3.8065,3.8065,3.804,3.804,3.7864,3.7337,3.7713,0.0,3.7337,3.7713,3.8015,3.8015,3.799,3.799,3.799,3.7487,3.7412,3.7965,3.7513,3.7437,3.799,3.7009,3.6683,3.721,3.6683,3.6155,3.5558,0.0,0.0,0.0,0.0,0.0,0.0,0.0,0.0,0.0,0.0,0.0,0.0,0.0,0.0,0.0,0.0,0.0,0.0,0.0,0.0,0.0,0.0,2.7643,2.7526,2.7878,2.8093,2.7949,2.8144,2.8242,2.8151,2.8249,2.8301,2.8301,2.8574,2.875,2.875,2.907,2.9246,2.9246,2.9246,2.9305,2.9422,2.979,2.985,2.9598,3.0336,3.123,3.2212,3.2588,3.3519,3.4829,3.4829,3.5423,3.6389,3.6389,3.7044,3.7965,3.7663,3.7563,3.7563,3.7563,3.7638,3.7789,3.7965,3.8015,3.8015,3.8015,3.8015,3.8015,3.8015,3.8015,3.8015,3.8015,3.8015,3.809,3.8542,3.8668,3.8768,3.9145,3.922,3.922,3.922,3.922,3.922,3.922,3.922,3.9094,3.8718,3.8668,3.8743,3.8969,3.9145,0.0,3.9019,3.8818,3.8467,3.804,3.7638,3.7436,3.7436,3.7262,3.7412,3.7965,3.7864,3.7839,3.799,3.7713,3.7638,3.7789,3.7236,3.6909,0.0,0.0,0.0,0.0,0.0,0.0,0.0,0.0,0.0,0.0,0.0,0.0,0.0,0.0,0.0,0.0,0.0,0.0,0.0,0.0,0.0,0.0,2.791,2.8288,2.8464,2.8386,2.8359,2.8535,2.8555,2.8633,2.8836,2.8855,2.8855,2.8855,2.9062,2.9199,2.9199,2.9461,2.9598,2.9598,2.9598,2.9676,2.9852,2.9852,2.995,3.0146,3.0146,3.087,3.2252,3.2252,3.3334,0.0,3.5241,3.608,3.7448,3.7448,3.7934,0.0,0.0,0.0,0.0,0.0,3.8366,3.8391,3.8642,3.8718,3.8718,3.8718,3.8718,3.8718,3.8718,3.8718,3.8718,3.8718,3.8718,3.8793,3.912,3.9245,3.9321,3.9622,3.9697,3.9697,3.9697,3.9697,3.9697,3.9697,3.9697,0.0,3.9296,3.9245,3.9271,3.9346,3.9546,3.9622,3.9371,3.9296,3.912,3.8743,3.8417,3.8241,3.8241,3.8039,0.0,0.0,0.0,3.8266,3.8015,3.8241,0.0,0.0,0.0,3.7538,3.7538,0.0,0.0,0.0,3.5782,3.5656,0.0,0.0,0.0,0.0,0.0,0.0,0.0,0.0,0.0,0.0,0.0,0.0,0.0,0.0,0.0,0.0,2.8711,2.9121,2.954,2.8933,2.8574,2.8945,2.8984,2.9141,2.9559,2.9598,2.9598,2.9598,2.9637,2.9676,2.9676,0.0,0.0,0.0,0.0,2.9931,3.0273,3.0273,3.0488,3.0898,3.0898,3.1585,3.2851,3.2851,3.4292,3.6757,3.6757,3.7583,3.8973,3.9154,3.931,3.9365,3.8542,3.8191,3.8266,3.8793,3.8994,3.907,3.9521,0.0,0.0,3.9697,3.9697,3.9697,3.9697,3.9697,3.9697,3.9697,3.9697,3.9697,3.9697,3.9697,3.9697,3.9697,3.9697,3.9697,3.9697,3.9697,3.9697,3.9697,3.9697,3.9697,3.9697,3.9697,3.9521,3.907,3.9396,3.9521,3.9044,3.9421,3.9672,3.9622,0.0,0.0,3.9597,3.917,3.9145,3.9672,3.9245,3.8768,3.8216,3.8718,3.8517,3.7512,3.7939,3.8191,3.8191,3.8191,3.8191,3.8165,3.7086,3.6835,0.0,0.0,0.0,0.0,0.0,0.0,0.0,0.0,0.0,0.0,0.0,0.0,0.0,0.0,0.0,2.8769,2.916,2.95,2.9579,2.9461,2.9383,2.9461,2.9481,2.95,2.9598,2.9598,2.9598,2.9598,2.9911,3.0078,3.0078,3.043,3.0644,3.0644,3.0644,3.0713,3.0762,3.0762,3.0801,3.0898,0.0,0.0,3.1325,3.1325,3.1643,3.2178,3.2178,3.3013,3.4487,3.5672,3.6838,3.8034,3.8984,3.9371,3.9396,3.9496,3.9546,3.9546,3.9647,3.9697,3.9697,3.9697,3.9697,3.9697,3.9697,3.9697,0.0,3.9697,3.9697,3.9697,3.9697,3.9697,3.9697,3.9697,3.9697,3.9697,3.9697,3.9697,3.9697,3.9697,3.9697,3.9697,3.9697,3.9697,3.9647,3.9546,3.9622,3.9647,3.9546,3.9622,3.9521,3.9095,3.9044,3.9044,3.9044,3.8944,3.9145,3.9672,3.9597,3.9496,3.9371,3.9471,3.9421,3.922,3.932,3.9371,3.9371,3.9371,3.9371,3.9346,3.8216,3.7764,0.0,0.0,0.0,0.0,0.0,0.0,0.0,0.0,0.0,0.0,0.0,2.8105,0.0,0.0,2.9035,2.9492,2.9746,2.9989,3.0224,3.0263,3.0165,2.995,2.9911,3.0009,3.0243,3.0263,3.0263,3.0263,3.0458,3.0547,3.0547,3.0762,3.0898,3.0898,3.0898,3.0898,3.0898,3.0898,3.0898,3.0898,3.0898,3.0898,3.0898,3.0898,3.1296,3.2006,3.2006,3.2843,3.4264,3.4985,3.5727,3.646,3.721,3.7501,3.7501,3.7501,3.7501,3.7501,3.7501,3.7501,3.7501,3.7501,3.7501,3.7634,3.8398,3.8608,3.8739,3.9491,3.9697,3.9697,3.9697,3.9697,3.9697,3.9697,3.9697,3.9697,3.9697,3.9697,3.9697,3.9697,3.9697,3.9697,3.9697,3.9697,3.9697,3.9697,3.9697,3.9697,3.9697,3.9697,3.9597,3.9346,3.9296,3.9296,3.9296,3.9296,3.9421,3.9672,3.9697,3.9697,3.9697,3.9697,3.9697,3.9697,3.9697,3.9697,3.9697,3.9697,3.9697,3.9672,3.912,3.8843,0.0,0.0,0.0,0.0,0.0,0.0,0.0,0.0,2.8073,2.8555,2.8672,2.8789,2.9219,2.9297,2.9531,3.0215,3.0332,3.0469,3.084,3.0898,3.0762,3.0371,3.0332,3.0488,3.0859,3.0898,3.0898,3.0898,3.0898,3.0918,3.1016,3.1016,3.1055,3.1133,3.1133,3.1133,3.1133,3.1133,3.1133,3.1133,3.1133,3.1133,3.1133,3.1133,3.1796,3.2942,3.2942,3.3756,3.5107,3.4827,3.4855,3.5107,3.4799,3.4687,3.475,3.5135,3.548,3.5727,3.5727,3.5918,3.6135,3.6135,3.6135,3.6402,3.7557,3.7928,3.819,3.9362,3.9697,3.9697,3.9697,3.9697,3.9697,3.9697,3.9697,3.9697,3.9697,3.9697,3.9697,3.9697,3.9697,3.9697,3.9697,3.9697,3.9697,3.9697,3.9697,3.9697,3.9697,3.9697,3.9697,3.9697,3.9697,3.9697,3.9697,3.9697,3.9697,3.9697,3.9697,3.9697,3.9697,3.9697,3.9697,3.9697,3.9697,3.9697,3.9697,3.9697,3.9697,3.9697,3.9697,3.9697,2.5835,2.6342,2.7187,2.791,2.8105,2.8359,0.0,0.0,2.9004,2.9824,2.998,3.0117,3.0586,3.0664,3.0703,3.0801,3.082,3.084,3.0879,3.0898,3.0879,3.082,3.082,3.084,3.0879,3.0898,3.0898,3.0898,3.0898,3.1055,3.1396,3.1416,3.1621,3.2042,3.2061,3.2061,3.2061,3.2061,3.2061,3.2061,3.2061,3.2061,3.2061,3.2061,3.2133,3.2314,3.2314,3.3143,3.4412,3.3084,3.3302,3.4383,3.3054,3.2554,3.2764,3.4619,3.6135,3.724,3.724,3.8111,3.9206,3.9206,3.9206,3.9258,3.9413,3.9439,3.9491,3.9671,3.9697,3.9697,3.9697,3.9697,3.9697,3.9697,3.9697,3.9697,3.9697,3.9697,3.9697,3.9697,3.9697,3.9697,3.9697,3.9697,3.9697,3.9697,3.9697,3.9697,3.9697,3.9697,3.9697,3.9697,3.9697,3.9697,3.9697,3.9697,3.9697,3.9697,3.9697,3.9697,3.9697,3.9697,3.9697,3.9697,3.9697,3.9697,3.9697,3.9697,3.9697,3.9697,3.9697,3.9697,2.7474,2.765,2.791,0.0,2.8848,2.9149,2.952,2.9609,2.9844,3.0469,3.0605,3.0664,3.0859,3.0898,3.0898,0.0,3.0898,3.0898,3.0898,3.0898,3.0976,3.123,3.125,3.125,3.125,3.125,3.1367,3.1651,3.167,3.1749,3.1894,3.1894,3.2003,3.2198,3.2198,3.2198,3.2198,3.2198,3.2198,3.2198,3.2198,3.2198,3.2198,3.2198,3.2198,3.2198,3.2198,3.2542,3.3075,3.2452,3.2573,3.3065,3.2452,3.2198,3.2291,3.3184,3.3896,3.4424,3.4424,3.4826,3.5341,3.5341,3.5942,3.6817,3.7699,3.8598,3.9538,4.0388,4.0625,4.0625,4.0625,4.0625,4.0625,4.0625,4.0625,4.0625,4.0625,4.0625,4.0625,4.0625,4.0625,4.0625,4.0625,4.0625,4.0625,4.0625,4.0099,3.9697,3.9697,3.9697,3.9697,3.9697,3.9697,3.9697,3.9697,3.9697,3.9697,3.9697,3.9697,3.9697,3.9697,3.9697,3.9697,3.9697,3.9697,3.9697,3.9697,3.9697,3.9697,3.9697,3.9697,3.9697,2.8516,0.0,0.0,2.9141,2.9609,2.997,2.997,3.0176,3.0488,3.082,3.0898,3.0898,3.0898,3.0898,3.0898,3.0898,3.0898,3.0937,3.1055,3.1055,3.123,3.1641,3.1699,3.1738,3.1855,3.1758,3.1816,3.2179,3.2198,3.2257,3.2374,3.2374,3.2433,3.255,3.2519,3.2519,3.2519,3.2519,3.2519,3.2519,3.2519,3.2519,3.2519,3.2519,3.2519,3.2519,3.2519,3.2519,3.2519,3.2519,3.2519,3.2519,3.2519,3.2519,3.2519,3.2519,3.2649,3.2794,3.2794,3.3065,3.3405,3.3405,3.4167,3.5271,3.6343,3.7485,3.8633,3.9706,4.0305,4.0631,4.0631,4.0954,4.1302,4.1302,4.1302,4.1302,4.1302,4.1302,4.1302,4.1302,4.1302,4.1302,4.1302,4.1302,4.1302,4.1302,4.0625,4.0149,4.0149,4.0023,3.9923,3.9923,3.9798,3.9697,3.9697,3.9697,3.9697,3.9697,3.9697,3.9697,3.9697,3.9697,3.9697,3.9697,3.9697,3.9697,3.9697,3.9697,3.9697,3.9697,3.9697,3.9697,0.0,0.0,2.9074,2.9941,3.0508,3.0859,3.0859,3.0859,3.0879,3.0879,3.0898,3.0898,3.0898,3.0898,3.0898,3.0898,3.0898,3.1035,3.1445,3.1474,3.166,3.212,3.2179,3.2335,0.0,3.2413,3.2179,3.2198,3.2198,3.2374,3.2754,3.2773,3.2969,3.3347,3.3347,3.3347,3.3347,3.3347,3.3347,3.3347,3.3347,3.3347,3.3347,3.3347,3.3347,3.3347,3.3347,3.3347,3.3347,3.3347,3.3347,3.3347,3.3347,3.3347,3.3347,3.3347,3.3769,3.4324,3.4324,3.5263,3.6458,3.6458,3.6487,3.6544,3.6595,3.663,3.671,3.6716,3.7824,3.8971,3.8971,4.0144,4.1302,4.1302,4.1302,4.1302,4.1302,4.1302,4.1302,4.1302,4.1302,4.1302,4.1302,4.1302,4.1302,4.1302,4.125,4.1252,4.1252,4.08,4.0474,4.0474,4.0023,3.9697,3.9697,3.9697,3.9697,3.9697,3.9697,3.9697,3.9697,3.9697,3.9697,3.9697,3.9697,3.9697,3.9697,3.9697,3.9697,3.9697,3.9697,3.9697,0.0,0.0,2.9902,3.0508,3.0781,3.0898,3.0898,3.0898,3.0898,3.0898,3.0644,3.043,3.043,3.043,3.0527,3.084,3.1133,3.1465,3.1894,3.1953,3.2109,3.257,3.2578,0.0,0.0,0.0,0.0,3.2988,3.3008,3.3066,3.3203,3.3203,3.3281,3.3386,3.3386,3.3386,3.3386,3.3386,3.3386,3.3386,3.3386,3.3386,3.3386,3.3386,3.3386,3.3386,3.3386,3.3386,3.3386,3.3386,3.3386,3.3386,3.3386,3.3386,3.3386,3.3386,3.3536,3.3724,3.3724,3.4063,3.4473,3.4473,3.5214,3.6067,3.6067,3.7561,3.9243,3.9243,4.0381,4.1611,4.1611,4.2025,4.2434,4.2434,4.2434,4.2434,4.2434,4.2434,4.2434,4.2434,4.2434,4.2434,4.2434,4.2434,4.2434,4.2434,4.1779,4.1302,4.1302,4.1152,4.1026,4.1026,4.0876,4.075,4.075,4.075,4.075,4.075,4.075,4.06,4.0249,4.0249,4.0074,3.9697,3.9697,3.9873,4.0249,4.0249,4.0399,4.075,4.075,4.075,0.0,3.0,3.0312,3.0781,3.0898,3.0898,3.0898,3.0898,3.0898,3.0898,3.0527,3.0195,3.0195,3.0332,3.0488,3.0625,3.1133,3.168,3.214,3.2198,3.2413,3.2949,3.3008,3.3125,0.0,0.0,0.0,3.3367,3.3386,3.3386,3.3386,3.3386,3.3496,3.3652,3.3652,3.373,3.3867,3.373,3.3574,3.3386,3.3386,3.3386,3.3386,3.3386,3.3386,3.3386,3.3386,3.3386,3.3386,3.3386,3.3516,3.3652,3.3652,3.375,3.3855,3.3855,3.3855,3.3828,3.3503,3.3386,3.3386,3.3386,3.4101,3.4933,3.4933,3.6386,3.8022,3.8022,3.961,4.1276,4.1276,4.215,4.3014,4.3014,4.3014,4.3014,4.3014,4.3014,4.3014,4.3014,4.3014,4.3014,4.3014,4.3014,4.3014,4.3014,4.2384,4.1904,4.1904,4.1756,4.163,4.163,4.1428,4.1302,4.1302,4.1302,4.1302,4.1302,4.1302,4.1152,4.08,4.0775,4.0625,4.03,4.0275,4.0424,4.0775,4.0775,4.0976,4.1302,4.1302,4.1302,2.9961,3.0215,3.0332,3.0781,3.0898,3.0898,3.0898,3.0898,3.0879,3.0859,3.0469,3.0137,0.0,0.0,3.0703,3.0332,3.1016,3.1738,3.2198,3.2257,3.2519,0.0,0.0,0.0,0.0,0.0,0.0,3.3445,0.0,3.3425,3.3464,3.3464,3.3672,3.4114,3.4134,3.4297,3.4687,3.4297,3.3906,3.3464,3.3464,3.3464,3.3464,3.3464,3.3464,3.3464,3.3464,3.3464,3.3464,3.3464,3.373,3.4134,3.4134,3.4336,3.4707,3.4707,3.4707,3.459,3.3738,3.3464,3.3464,3.3464,3.3464,3.3464,3.3464,3.3508,3.3571,3.3571,3.5828,3.8261,3.8261,4.0519,4.284,4.295,4.295,4.2978,4.3062,4.309,4.309,4.309,4.309,4.309,4.309,4.3065,4.3039,4.3039,4.3014,4.3014,4.3014,4.2537,4.2263,4.2263,4.1731,4.1403,4.1403,4.1403,4.1403,4.1403,4.1403,4.1378,4.1352,4.1352,4.1327,4.1302,4.1302,4.1327,4.1352,4.1352,4.1378,4.1403,4.1403,4.1403,3.0059,3.0449,3.0742,3.0859,3.0898,3.0898,3.0898,3.0898,3.0801,3.0449,2.9766,2.9336,0.0,0.0,0.0,3.1035,3.1914,0.0,3.3047,3.3105,0.0,3.3367,0.0,3.3555,3.3887,3.3906,0.0,0.0,3.4082,3.4043,3.4355,3.4375,3.4434,3.4531,3.4531,3.459,3.4707,3.459,3.4492,3.4375,3.4375,3.4375,3.4375,3.4375,3.4375,3.4375,3.4375,3.4375,3.4375,3.4375,3.4434,3.4531,3.4531,3.4609,3.4707,3.4707,3.4707,3.4668,3.4453,3.4375,3.4375,3.4375,3.4375,3.4375,3.4375,3.5208,3.6147,3.6147,3.7619,3.9168,3.9168,3.9779,4.0718,4.1994,4.2313,4.2666,4.3932,4.4192,4.4192,4.4192,4.4192,4.4192,4.4192,4.3865,4.3589,4.3589,4.3266,4.3014,4.3014,4.2889,4.2788,4.2788,4.2663,4.2559,4.2559,4.2559,4.2559,4.2559,4.2559,4.2411,4.1984,4.1984,4.1756,4.1327,4.1302,4.1503,4.1984,4.1984,4.2185,4.2559,4.2559,4.2559,3.0391,3.0703,3.0898,3.0898,3.0898,3.084,3.0625,3.0586,3.041,2.9766,2.9101,0.0,2.9199,0.0,0.0,0.0,0.0,0.0,3.3105,3.3144,3.3281,0.0,3.3711,0.0,3.4297,3.4336,3.4531,0.0,3.459,3.4453,3.4687,3.4707,3.4785,3.5,3.5,3.5,3.5,3.5,3.4902,3.4707,3.4707,3.4707,3.4707,3.4707,3.4707,3.4707,0.0,3.4707,3.4707,3.4707,3.4824,3.5,3.5,3.5117,3.5273,3.5273,3.5273,3.5273,3.5273,3.5273,3.5215,3.4824,3.4707,3.4707,3.4707,3.5321,3.6046,3.6046,3.7212,3.8456,3.8456,3.9525,4.0899,4.1861,4.2663,4.3458,4.4415,4.4589,4.4589,4.4589,4.4589,4.4589,4.4589,4.4338,4.4166,4.4166,4.389,4.3689,4.3689,4.3291,4.3014,4.3014,4.3014,4.3014,4.3014,4.3014,4.3014,4.3014,4.3014,4.2864,4.2562,4.2537,4.2386,4.2057,4.2057,4.2208,4.2537,4.2537,4.2713,4.3014,4.3014,4.3014,3.0781,3.0898,3.0898,3.0898,3.0898,3.0762,3.0293,3.0156,2.9863,2.9004,0.0,2.834,2.8769,2.9531,3.0293,3.0879,0.0,3.2812,3.2871,3.293,3.3242,3.4016,3.4153,3.4349,3.4746,3.4785,3.498,3.5449,3.5098,3.4883,3.4883,3.4883,3.5059,3.5469,3.5488,3.5488,3.5488,3.5488,3.5273,3.4883,3.4883,3.4883,3.4883,3.4883,3.4883,3.4883,3.4883,0.0,3.4883,3.4883,3.5117,3.5488,3.5488,3.5703,3.5982,3.5982,3.5982,3.5982,3.5982,3.5982,3.5898,3.5117,3.4883,3.4883,3.4883,3.4883,3.4883,3.4883,3.5892,3.6972,3.6972,3.9101,4.1351,4.1565,4.2916,4.4234,4.4439,4.4669,4.4815,4.4815,4.4815,4.4815,4.4815,4.4765,4.4715,4.4715,4.464,4.4589,4.4589,4.374,4.3115,4.3115,4.3039,4.3014,4.3014,4.3014,4.3014,4.3014,4.3014,4.3014,4.3014,4.3014,4.3014,4.3014,4.3014,4.3014,4.3014,4.3014,4.3014,4.3014,4.3014,4.3014,3.0859,3.0898,3.0898,3.0898,3.0898,3.0762,3.0293,2.9922,0.0,0.0,2.8093,2.7936,2.832,2.9129,3.0087,3.1211,3.2187,3.291,3.3262,3.3613,3.3938,0.0,0.0,0.0,0.0,0.0,0.0,0.0,0.0,3.5747,3.5747,3.5747,3.5786,3.5898,3.5918,3.5918,3.5918,3.5918,3.5879,3.5747,3.5747,3.5747,3.5747,3.5747,3.5747,3.5747,3.5747,0.0,3.5747,3.5747,3.584,3.5918,3.5918,3.5923,3.5982,3.5982,3.5982,3.5982,3.5982,3.5982,3.5962,3.5806,3.5747,3.5747,3.5747,3.5747,3.5747,3.5747,3.5984,3.6186,3.6186,3.6636,3.743,3.8869,4.0529,4.2169,4.3562,4.4986,4.6024,4.6024,4.6024,4.6024,4.6024,4.5648,4.5347,4.5347,4.492,4.4589,4.4589,4.4066,4.3664,4.3664,4.3237,4.3014,4.3014,4.3014,4.3014,4.3014,4.3014,4.3014,4.3014,4.3014,4.3014,4.3014,4.3014,4.3014,4.3014,4.3014,4.3014,4.3014,4.3014,4.3014,3.0898,3.0898,3.0898,3.0898,3.0898,3.0703,3.0019,0.0,0.0,0.0,2.7461,2.7461,2.7917,2.8652,2.9668,3.0976,3.1914,3.2695,3.3289,3.3789,0.0,3.4707,0.0,0.0,0.0,0.0,0.0,0.0,0.0,3.5982,3.5982,3.5982,3.5982,3.5982,3.5982,3.5982,3.5982,3.5982,3.5982,3.5982,3.5982,3.5982,3.5982,3.5982,3.5982,3.5982,3.5982,0.0,3.5982,3.5982,3.5982,3.5982,3.5982,3.5982,3.5982,3.5982,3.5982,3.5982,3.5982,3.5982,3.5982,3.5982,3.5982,3.5982,3.5982,3.5982,3.5982,3.5982,3.5982,3.5982,3.5982,3.6654,3.7575,3.842,3.9921,4.1661,4.3333,4.4374,4.522,4.612,4.6301,4.6301,4.6301,4.61,4.5924,4.5924,4.5673,4.5468,4.5468,4.502,4.4568,4.4267,4.3991,4.384,4.384,4.384,4.384,4.384,4.384,4.384,4.384,4.384,4.384,4.384,4.384,4.384,4.384,4.384,4.384,4.384,4.384,4.384,3.0859,3.0898,3.0898,3.0898,3.0898,3.0664,2.9794,2.916,0.0,0.0,2.6986,2.7129,2.7487,2.8281,2.9297,0.0,3.1358,3.2257,3.3144,3.375,3.4427,0.0,0.0,0.0,0.0,0.0,0.0,0.0,0.0,0.0,3.5982,3.5982,3.5982,3.5982,3.5982,3.5982,3.5982,3.5982,3.5982,3.5982,3.5982,3.5982,3.5982,3.5982,3.5982,3.5982,3.5982,0.0,0.0,3.5982,3.5982,3.5982,3.5982,3.5982,3.5982,3.5982,3.5982,3.5982,3.5982,3.5982,3.5982,3.5982,3.5982,3.5982,3.5982,3.5982,3.5982,3.5982,3.5982,3.5982,3.5982,3.7025,3.8154,3.8498,3.9649,4.1117,4.2801,4.3427,4.4103,4.5464,4.6059,4.6301,4.6301,4.6301,4.6301,4.6301,4.6301,4.6301,4.6301,4.5924,4.5497,4.4991,4.474,4.4589,4.4589,4.4589,4.4589,4.4589,4.4589,4.4589,4.4589,4.4589,4.4589,4.4589,4.4589,4.4589,4.4589,4.4589,4.4589,4.4589,4.4589,4.4589,3.0781,3.0898,3.0898,3.0898,3.0898,3.0664,2.9794,0.0,0.0,2.7207,2.6986,2.7006,2.707,2.8059,2.9082,2.9637,3.0458,3.1445,3.2676,3.3555,3.4427,3.5293,0.0,0.0,0.0,0.0,0.0,0.0,0.0,0.0,3.5982,3.5982,3.5982,3.5982,3.5982,3.5982,3.5982,3.5982,3.5982,3.5982,3.5982,3.5982,3.5982,3.5982,3.5982,3.5982,3.5982,0.0,0.0,3.5982,3.5982,3.5982,3.5982,3.5982,3.5982,3.5982,3.5982,3.5982,3.5982,3.5982,3.5982,3.5982,3.5982,3.5982,3.5982,3.5982,3.5982,3.5982,3.5982,3.5982,3.5982,3.6118,3.664,3.8221,3.8729,3.93,4.1052,4.2643,4.3762,4.3917,4.522,4.6301,4.6301,4.6301,4.6301,4.6301,4.6301,4.6301,4.6301,4.6276,4.6225,4.615,4.5217,4.4589,4.4589,4.4589,4.4589,4.4589,4.4589,4.4589,4.4589,4.4589,4.4589,4.4589,4.4589,4.4589,4.4589,4.4589,4.4589,4.4589,4.4589,4.4589,3.0762,3.0898,3.0898,3.0898,3.0684,3.0234,2.9375,0.0,2.7702,2.6816,2.6836,2.6986,2.6986,2.7851,2.8691,2.9101,2.9707,3.0673,3.2237,3.3144,3.4101,3.5254,3.5762,0.0,0.0,0.0,0.0,0.0,0.0,0.0,3.5982,3.5982,3.5982,3.5982,3.5982,3.5982,3.5982,3.5982,3.5982,3.5982,3.5982,3.5982,3.5982,3.5982,3.5982,3.5982,3.5982,0.0,0.0,3.5982,3.5982,3.5982,3.5982,3.5982,3.5982,3.5982,3.5982,3.5982,3.5982,3.5982,3.5982,3.5982,3.5982,3.5982,3.5982,3.5982,3.5982,3.5982,3.5982,3.5982,3.5982,3.5982,3.6186,3.6856,3.7059,3.7788,4.0602,4.1724,4.2801,4.4859,4.5823,4.6301,4.6301,4.6301,4.6301,4.6301,4.6301,4.6301,4.6301,4.6301,4.6301,4.6301,4.5869,4.5618,4.5618,4.5618,4.5618,4.5618,4.5618,4.5618,4.5618,4.5618,4.5618,4.5618,4.5618,4.5618,4.5618,4.5618,4.5618,4.5618,4.5618,4.5618,3.0566,3.0781,3.0898,3.0898,3.0547,2.9961,0.0,0.0,2.7448,2.6588,2.6719,2.6986,2.6986,2.7715,2.8398,2.8691,2.9101,2.997,3.1592,3.2519,3.3535,0.0,0.0,3.5684,0.0,0.0,0.0,0.0,0.0,0.0,3.5982,3.5982,3.5982,3.5982,3.5982,3.5982,3.5982,3.5982,3.5982,3.5982,3.5982,3.5982,3.5982,3.5982,3.5982,3.5982,3.5982,0.0,0.0,3.5982,3.5982,3.5982,3.5982,3.5982,3.5982,3.5982,3.5982,3.5982,3.5982,3.5982,3.5982,3.5982,3.5982,3.5982,3.5982,3.5982,3.5982,3.5982,3.5982,3.5982,3.5982,3.5982,3.5982,3.5982,3.6369,3.7441,3.9888,4.1245,4.2643,4.5043,4.5944,4.6301,4.6301,4.6301,4.6301,4.6301,4.6301,4.6301,4.6301,4.6301,4.6301,4.6301,4.6301,4.6301,4.6301,4.6301,4.6301,4.6301,4.6301,4.6301,4.6301,4.6301,4.6301,4.6301,4.6301,4.6301,4.6301,4.6301,4.6301,4.6301,4.6301,4.6301,3.0098,3.0547,3.0898,3.0898,3.0547,2.9961,0.0,0.0,2.7448,2.6588,2.6719,2.6986,2.6986,2.7715,2.8301,2.8301,2.8652,2.9394,3.0723,3.167,3.2687,0.0,0.0,3.4902,3.5351,0.0,0.0,0.0,0.0,0.0,3.5982,3.5982,3.5982,3.5982,3.5982,3.5982,3.5982,3.5982,3.5982,3.5982,3.5982,3.5982,3.5982,3.5982,3.5982,0.0,0.0,0.0,0.0,3.5982,3.5982,3.5982,3.5982,3.5982,3.5982,3.5982,3.5982,3.5982,3.5982,3.5982,3.5982,3.5982,3.5982,3.5982,3.5982,3.5982,3.5982,3.5982,3.5982,3.5982,3.5982,3.5982,3.5982,3.5982,3.7307,3.8564,3.8597,4.1287,4.37,4.3731,4.5104,4.6301,4.6301,4.6301,4.6301,4.6301,4.6301,4.6301,4.6301,4.6301,4.6301,4.6301,4.6301,4.6301,4.6301,4.6301,4.6301,4.6301,4.6301,4.6301,4.6301,4.6301,4.6301,4.6301,4.6301,4.6301,4.6301,4.6301,4.6301,4.6301,4.6301,4.6301,2.9676,2.9911,3.0009,3.0009,2.9434,2.875,2.821,0.0,2.6621,2.603,2.6498,2.6986,2.6986,2.7715,2.8398,2.8672,2.8801,2.9445,0.0,0.0,0.0,3.4355,3.5156,3.5664,0.0,0.0,0.0,0.0,0.0,0.0,3.5982,3.5982,3.5982,3.5982,3.5982,3.5982,3.5982,3.5982,3.5982,3.5982,3.5982,3.5982,3.5982,3.5982,3.5982,0.0,0.0,0.0,0.0,3.5982,3.5982,3.5982,3.5982,3.5982,3.5982,3.5982,3.5982,3.5982,3.5982,3.5982,3.5982,3.5982,3.5982,3.5982,3.5982,3.5982,3.5982,3.5982,3.5982,3.5982,3.5982,3.5982,3.5982,3.5982,3.6403,3.7475,3.9856,4.1245,4.2675,4.5013,4.5914,4.6301,4.6301,4.6301,4.6301,4.6301,4.6301,4.6301,4.6301,4.6301,4.6301,4.6301,4.6301,4.6301,4.6301,4.6301,4.6301,4.6301,4.6301,4.6301,4.6301,4.6301,4.6301,4.6301,4.6301,4.6301,4.6301,4.6301,4.6301,4.6301,4.6301,4.6301,0.0,2.8992,2.9109,2.9109,2.8601,0.0,0.0,2.692,2.6309,2.601,2.6518,2.7045,2.7226,2.7832,2.8379,2.8633,2.8945,2.9668,0.0,0.0,0.0,3.4551,0.0,0.0,0.0,0.0,0.0,0.0,0.0,0.0,3.5982,3.5982,3.5982,3.5982,3.5982,3.5982,3.5982,3.5982,3.5982,3.5982,3.5982,3.5982,3.5982,3.5982,3.5982,0.0,0.0,0.0,0.0,3.5982,3.5982,3.5982,3.5982,3.5982,3.5982,3.5982,3.5982,3.5982,3.5982,3.5982,3.5982,3.5982,3.5982,3.5982,3.5982,3.5982,3.5982,3.5982,3.5982,3.5982,3.5982,3.5982,3.5982,3.5982,3.6505,3.7575,3.9758,4.0731,4.182,4.3972,4.489,4.5312,4.5312,4.5853,4.6301,4.6301,4.6301,4.6301,4.6301,4.6301,4.6301,4.6301,4.6301,4.6301,4.6301,4.6301,4.6301,4.6301,4.6301,4.6301,4.6301,4.6301,4.6301,4.6301,4.6301,4.6301,4.6301,4.6301,4.6301,4.6301,4.6301,4.6301,0.0,0.0,0.0,0.0,0.0,0.0,0.0,2.6641,0.0,2.6387,2.6719,2.7148,2.7604,2.8054,2.834,2.834,2.9109,3.0009,0.0,3.2129,0.0,0.0,3.5156,0.0,3.5391,0.0,0.0,0.0,0.0,0.0,3.5982,3.5982,3.5982,3.5982,3.5982,3.5982,3.5982,3.5982,3.5982,3.5982,3.5982,3.5982,3.5982,3.5982,3.5982,0.0,0.0,0.0,0.0,3.5982,3.5982,3.5982,3.5982,3.5982,3.5982,3.5982,3.5982,3.5982,3.5982,3.5982,3.5982,3.5982,3.5982,3.5982,3.5982,3.5982,3.5982,3.5982,3.5982,3.5982,3.5982,3.5982,3.5982,3.5982,3.724,3.8432,3.8564,3.9856,4.1052,4.1181,4.2454,4.3544,4.3544,4.4951,4.612,4.612,4.621,4.6301,4.6301,4.6301,4.6301,4.6301,4.6301,4.6301,4.6301,4.6301,4.6301,4.6301,4.6301,4.6301,4.6301,4.6301,4.6301,4.6301,4.6301,4.6301,4.6301,4.6301,4.6301,4.6301,4.6301,4.6301,0.0,0.0,0.0,0.0,0.0,0.0,0.0,2.6211,2.5971,2.6328,2.6719,2.7148,2.7604,2.8262,2.8769,2.8769,2.9785,3.0908,3.1768,0.0,0.0,3.5195,3.5605,3.5742,0.0,0.0,0.0,0.0,0.0,3.5982,3.5982,3.5982,3.5982,3.5982,3.5982,3.5982,3.5982,3.5982,3.5982,3.5982,3.5982,3.5982,3.5982,3.5982,3.5982,0.0,0.0,0.0,3.5982,3.5982,3.5982,3.5982,3.5982,3.5982,3.5982,3.5982,3.5982,3.5982,3.5982,3.5982,3.5982,3.5982,3.5982,3.5982,3.5982,3.5982,3.5982,3.5982,3.5982,3.5982,3.5982,3.5982,3.5982,3.5982,3.6302,3.6991,3.832,3.8927,3.9595,4.0956,4.1533,4.1788,4.1788,4.3201,4.4312,4.4312,4.5434,4.6301,4.6301,4.6301,4.6301,4.6301,4.6301,4.6301,4.6301,4.6301,4.6301,4.6301,4.6301,4.6301,4.6301,4.6301,4.6301,4.6301,4.6301,4.6301,4.6301,4.6301,4.6301,4.6301,4.6301,4.6301,2.5693,2.605,2.6401,2.6401,2.6225,2.6094,2.6094,2.603,2.6152,2.6582,2.7012,2.75,2.8125,2.8769,2.9219,2.9219,3.0644,0.0,0.0,0.0,3.5156,3.5371,3.5586,3.5723,0.0,0.0,0.0,0.0,0.0,3.5982,3.5982,3.5982,3.5982,3.5982,3.5982,3.5982,3.5982,3.5982,3.5982,3.5982,3.5982,3.5982,3.5982,3.5982,3.5982,0.0,0.0,0.0,3.5982,3.5982,3.5982,3.5982,3.5982,3.5982,3.5982,3.5982,3.5982,3.5982,3.5982,3.5982,3.5982,3.5982,3.5982,3.5982,3.5982,3.5982,3.5982,3.5982,3.5982,3.5982,3.5982,3.5982,3.5982,3.5982,3.5982,3.6253,3.7193,3.7408,3.7709,3.863,3.9464,4.0018,4.0018,4.1437,4.2549,4.2549,4.3357,4.3972,4.3972,4.3972,4.4251,4.5013,4.5104,4.5434,4.621,4.6301,4.6301,4.6301,4.6301,4.6301,4.6301,4.6301,4.6301,4.6301,4.6301,4.6301,4.6301,4.6301,4.6301,4.6301,4.6301,4.6301,2.5796,2.5854,2.5893,2.5835,2.5815,2.5815,2.5815,2.6113,2.6504,2.6934,2.7363,2.7976,2.8848,2.9316,0.0,0.0,0.0,0.0,3.4629,3.4863,3.5019,3.5351,3.5449,0.0,0.0,0.0,0.0,0.0,0.0,3.5982,3.5982,3.5982,3.5982,3.5982,3.5982,3.5982,3.5982,3.5982,3.5982,3.5982,3.5982,3.5982,3.5982,3.5982,3.5982,3.5982,0.0,0.0,3.5982,3.5982,3.5982,3.5982,3.5982,3.5982,3.5982,3.5982,3.5982,3.5982,3.5982,3.5982,3.5982,3.5982,3.5982,3.5982,3.5982,3.5982,3.5982,3.5982,3.5982,3.5982,3.5982,3.5982,3.5982,3.5982,3.5982,3.5982,3.5982,3.5982,3.5982,3.5982,3.7173,3.8221,3.8221,3.9627,4.0795,4.0795,4.102,4.1213,4.1213,4.1213,4.1756,4.3177,4.3302,4.401,4.5762,4.5883,4.6029,4.6271,4.6301,4.6301,4.6301,4.6301,4.6301,4.6301,4.6301,4.6301,4.6301,4.6301,4.6301,4.6301,4.6301,4.6301,2.6191,2.6543,2.6713,2.6387,2.6289,2.6289,2.6289,2.6348,2.6504,2.6934,2.7363,2.8054,2.9266,2.9559,2.9852,0.0,0.0,3.3789,0.0,0.0,3.5703,3.543,0.0,3.5801,0.0,0.0,0.0,0.0,0.0,3.5982,3.5982,3.5982,3.5982,3.5982,3.5982,3.5982,3.5982,3.5982,3.5982,3.5982,3.5982,3.5982,3.5982,3.5982,3.5982,3.5982,0.0,3.5982,3.5982,3.5982,3.5982,3.5982,3.5982,3.5982,3.5982,3.5982,3.5982,3.5982,3.5982,3.5982,3.5982,3.5982,3.5982,3.5982,3.5982,3.5982,3.5982,3.5982,3.5982,3.5982,3.5982,3.5982,3.5982,3.5982,3.5982,3.5982,3.5982,3.5982,3.5982,3.5982,3.6219,3.6403,3.6403,3.7822,3.8993,3.8993,4.0246,4.1213,4.1213,4.1213,4.1309,4.1565,4.1597,4.2264,4.3948,4.4103,4.4737,4.621,4.6301,4.6301,4.6301,4.6301,4.6301,4.6301,4.6301,4.6301,4.6301,4.6301,4.6301,4.6301,4.6301,4.6301,2.5952,2.6479,2.7031,2.7096,2.7272,2.748,2.7715,2.7949,2.8191,2.8359,0.0,0.0,0.0,0.0,3.1133,3.2695,0.0,3.416,3.5234,3.5351,3.5332,0.0,0.0,3.5703,0.0,0.0,0.0,0.0,0.0,0.0,3.5982,3.5982,3.5982,3.5982,3.5982,3.5982,3.5982,3.5982,3.5982,3.5982,3.5982,3.5982,3.5982,3.5982,3.5982,3.5982,0.0,3.5982,3.5982,3.5982,3.5982,3.5982,3.5982,3.5982,3.5982,3.5982,3.5982,3.5982,3.5982,3.5982,3.5982,3.5982,3.5982,3.5982,3.5982,3.5982,3.5982,3.5982,3.5982,3.5982,3.5982,3.5982,3.5982,3.5982,3.5982,3.5982,3.5982,3.5982,3.5982,3.5982,3.5982,3.5982,3.5982,3.6674,3.7193,3.7193,3.7888,3.8387,3.8387,3.8387,3.8729,3.9693,3.979,4.0505,4.2201,4.2359,4.3482,4.612,4.6301,4.6301,4.6301,4.6301,4.6301,4.6301,4.6301,4.6301,4.6301,4.6301,4.6301,4.6301,4.6301,4.6301,2.5835,2.6479,2.7266,2.7721,2.8015,2.832,2.8926,2.9258,2.95,0.0,0.0,0.0,0.0,3.1543,0.0,3.4277,3.4453,3.4681,3.543,3.5234,0.0,0.0,0.0,0.0,0.0,0.0,0.0,0.0,0.0,0.0,3.5982,3.5982,3.5982,3.5982,3.5982,3.5982,3.5982,3.5982,3.5982,3.5982,3.5982,3.5982,3.5982,3.5982,3.5982,3.5982,3.5982,3.5982,3.5982,3.5982,3.5982,3.5982,3.5982,3.5982,3.5982,3.5982,3.5982,3.5982,3.5982,3.5982,3.5982,3.5982,3.5982,3.5982,3.5982,3.5982,3.5982,3.5982,3.5982,3.5982,3.5982,3.5982,3.5982,3.5982,3.5982,3.5982,3.5982,3.5982,3.5982,3.5982,3.5982,3.5982,3.5982,3.5982,3.5982,3.5982,3.5982,3.5982,3.5982,3.5982,3.6505,3.7855,3.7988,3.8696,4.044,4.0956,4.2486,4.5495,4.609,4.612,4.5702,4.609,4.6301,4.6301,4.6301,4.6301,4.6301,4.6301,4.6301,4.6301,4.6301,4.6301,2.623,2.6998,2.7741,2.8171,2.8015,2.8054,2.9266,2.9238,2.9199,2.998,0.0,0.0,0.0,3.2461,3.3457,3.4055,3.4785,3.5449,3.5918,0.0,0.0,0.0,0.0,0.0,0.0,0.0,0.0,0.0,0.0,0.0,3.5982,3.5982,3.5982,3.5982,3.5982,3.5982,3.5982,3.5982,3.5982,3.5982,3.5982,3.5982,3.5982,3.5982,3.5982,3.5982,3.5982,3.5982,3.5982,3.5982,3.5982,3.5982,3.5982,3.5982,3.5982,3.5982,3.5982,3.5982,3.5982,3.5982,3.5982,3.5982,3.5982,3.5982,3.5982,3.5982,3.5982,3.5982,3.5982,3.5982,3.5982,3.5982,3.5982,3.5982,3.5982,3.5982,3.5982,3.5982,3.5982,3.5982,3.5982,3.5982,3.5982,3.5982,3.5982,3.5982,3.5982,3.5982,3.5982,3.5982,3.605,3.6186,3.6186,3.689,3.863,4.0278,4.1979,4.3762,4.5403,4.5555,4.3948,4.5434,4.6301,4.6301,4.6301,4.6301,4.6301,4.6301,4.6301,4.6301,4.6301,4.6301,2.6269,2.7037,2.78,2.8184,2.8601,2.9227,3.0488,3.0859,3.1064,3.1397,3.1777,0.0,0.0,0.0,3.4609,3.4473,3.5215,3.584,3.5962,3.5982,0.0,0.0,0.0,0.0,0.0,0.0,0.0,0.0,0.0,0.0,3.5982,3.5982,3.5982,3.5982,3.5982,3.5982,3.5982,3.5982,3.5982,3.5982,3.5982,3.5982,3.5982,3.5982,3.5982,3.5982,3.5982,3.5982,3.5982,3.5982,3.5982,3.5982,3.5982,3.5982,3.5982,3.5982,3.5982,3.5982,3.5982,3.5982,3.5982,3.5982,3.5982,3.5982,3.5982,3.5982,3.5982,3.5982,3.5982,3.5982,3.5982,3.5982,3.5982,3.5982,3.5982,3.5982,3.5982,3.5982,3.5982,3.5982,3.5982,3.5982,3.5982,3.5982,3.5982,3.5982,3.5982,3.5982,3.5982,3.5982,3.6133,3.6406,3.666,3.6976,3.7399,3.8971,4.0126,4.0505,4.3146,4.4859,4.5312,4.5944,4.6301,4.6301,4.6301,4.6301,4.6301,4.6301,4.6301,4.6301,4.6301,4.6301,2.6504,2.7233,2.8015,2.8582,2.9266,3.0146,3.1426,3.1855,3.207,3.2511,3.2793,3.3027,3.3164,0.0,0.0,0.0,3.5547,3.5982,3.5982,3.5982,0.0,0.0,0.0,0.0,0.0,0.0,0.0,0.0,0.0,0.0,0.0,3.5982,3.5982,3.5982,3.5982,3.5982,3.5982,3.5982,3.5982,3.5982,3.5982,3.5982,3.5982,3.5982,3.5982,3.5982,3.5982,3.5982,3.5982,3.5982,3.5982,3.5982,3.5982,3.5982,3.5982,3.5982,3.5982,3.5982,3.5982,3.5982,3.5982,3.5982,3.5982,3.5982,3.5982,3.5982,3.5982,3.5982,3.5982,3.5982,3.5982,3.5982,3.5982,3.5982,3.5982,3.5982,3.5982,3.5982,3.5982,3.5982,3.5982,3.5982,3.5982,3.5982,3.5982,3.5982,3.5982,3.604,3.6211,3.623,3.6387,3.6816,3.7129,3.7187,3.6894,3.7958,3.8718,3.8992,4.1569,4.3804,4.5403,4.6029,4.6301,4.6301,4.6301,4.6301,4.6301,4.6301,4.6301,4.6301,4.6301,4.6301,2.6986,2.7637,2.8496,2.9383,2.9931,3.0547,3.1905,3.1836,3.1864,3.3133,3.3406,3.3555,3.4036,0.0,0.0,3.5312,3.5742,3.5982,3.5982,3.5982,0.0,0.0,0.0,0.0,0.0,0.0,0.0,0.0,0.0,0.0,0.0,3.5982,3.5982,3.5982,3.5982,3.5982,3.5982,3.5982,3.5982,3.5982,3.5982,3.5982,3.5982,3.5982,3.5982,3.5982,3.5982,3.5982,3.5982,3.5982,3.5982,3.5982,3.5982,3.5982,3.5982,3.5982,3.5982,3.5982,3.5982,3.5982,3.5982,3.5982,3.5982,3.5982,3.5982,3.5982,3.5982,3.5982,3.5982,3.5982,3.5982,3.5982,3.5982,3.5982,3.5982,3.5982,3.5982,3.5982,3.5982,3.5982,3.5982,3.5982,3.5982,3.5982,3.5982,3.5982,3.5982,3.6191,3.6656,3.6714,3.6871,3.7266,3.7305,3.7305,3.7305,3.7305,3.8037,3.9777,4.1076,4.2353,4.3661,4.5373,4.6301,4.6301,4.6301,4.6301,4.6301,4.6301,4.6301,4.6301,4.6301,4.6301,2.6908,2.7825,2.8867,2.9461,3.0351,3.1309,3.2042,3.2305,0.0,0.0,3.3887,3.4004,3.4434,0.0,0.0,0.0,0.0,0.0,3.5982,3.5982,0.0,0.0,0.0,0.0,0.0,0.0,0.0,0.0,0.0,0.0,0.0,3.5982,3.5982,3.5982,3.5982,3.5982,3.5982,3.5982,3.5982,3.5982,3.5982,3.5982,3.5982,3.5982,3.5982,3.5982,3.5982,3.5982,3.5982,3.5982,3.5982,3.5982,3.5982,3.5982,3.5982,3.5982,3.5982,3.5982,3.5982,3.5982,3.5982,3.5982,3.5982,3.5982,3.5982,3.5982,3.5982,3.5982,3.5982,3.5982,3.5982,3.5982,3.5982,3.5982,3.5982,3.5982,3.5982,3.5982,3.5982,3.5982,3.5982,3.5982,3.5982,3.5982,3.5982,3.5982,3.6289,3.6621,3.7051,3.7363,3.7598,3.7734,3.8008,3.8066,3.7773,3.7734,3.8356,3.9798,4.0244,4.1562,4.4081,4.5539,4.6301,4.6301,4.6301,4.6301,4.6301,4.6301,4.6301,4.6301,4.6301,4.6301,2.7832,2.8594,2.9414,3.04,3.1055,3.1719,3.25,0.0,0.0,0.0,3.4231,3.4453,3.4902,3.5547,0.0,3.5684,0.0,0.0,0.0,0.0,0.0,0.0,0.0,0.0,0.0,0.0,0.0,0.0,0.0,0.0,0.0,3.5982,3.5982,3.5982,3.5982,3.5982,3.5982,3.5982,3.5982,3.5982,3.5982,3.5982,3.5982,3.5982,3.5982,3.5982,3.5982,3.5982,3.5982,3.5982,3.5982,3.5982,3.5982,3.5982,3.5982,3.5982,3.5982,3.5982,3.5982,3.5982,3.5982,3.5982,3.5982,3.5982,3.5982,3.5982,3.5982,3.5982,3.5982,3.5982,3.5982,3.5982,3.5982,3.5982,3.5982,3.5982,3.5982,3.5982,3.5982,3.5982,3.5982,3.5982,3.5982,3.5982,3.604,3.625,3.6777,3.7266,3.7519,3.791,3.8184,3.8184,3.8418,3.8513,3.8203,3.8184,3.8513,3.9312,3.9875,4.1281,4.3849,4.5196,4.6124,4.6622,4.6622,4.6496,4.6301,4.6301,4.6301,4.6301,4.6301,4.6301,2.9168,2.9598,3.0106,3.1729,3.1894,3.1962,3.3133,3.3386,3.3523,3.4055,0.0,3.4844,3.5351,3.5762,3.5982,3.5982,0.0,0.0,0.0,0.0,0.0,0.0,0.0,0.0,0.0,0.0,0.0,0.0,0.0,0.0,0.0,3.5982,3.5982,3.5982,3.5982,3.5982,3.5982,3.5982,3.5982,3.5982,3.5982,3.5982,3.5982,3.5982,3.5982,3.5982,3.5982,3.5982,3.5982,3.5982,3.5982,3.5982,3.5982,3.5982,3.5982,3.5982,3.5982,3.5982,3.5982,3.5982,3.5982,3.5982,3.5982,3.5982,3.5982,3.5982,3.5982,3.5982,3.5982,3.5982,3.5982,3.5982,3.5982,3.5982,3.5982,3.5982,3.5982,3.5982,3.5982,3.5982,3.5982,3.5982,3.5982,3.5982,3.6172,3.6695,3.7402,3.793,3.7969,3.834,3.8611,3.8611,3.8611,3.8611,3.8611,3.8611,3.8611,3.8611,3.9683,4.1148,4.3037,4.4453,4.582,4.7143,4.7174,4.6898,4.6376,4.6376,4.6351,4.6301,4.6301,4.6301,2.8425,2.9598,3.0781,3.1484,3.2344,3.3055,3.3328,3.3386,3.3601,3.4414,3.4629,3.4941,3.5742,3.5923,3.5982,3.5982,0.0,0.0,0.0,0.0,0.0,0.0,0.0,0.0,0.0,0.0,0.0,0.0,0.0,0.0,3.5982,3.5982,3.5982,3.5982,3.5982,3.5982,3.5982,3.5982,3.5982,0.0,3.5982,3.5982,3.5982,3.5982,3.5982,3.5982,3.5982,3.5982,3.5982,3.5982,3.5982,3.5982,3.5982,3.5982,3.5982,3.5982,3.5982,3.5982,3.5982,3.5982,3.5982,3.5982,3.5982,3.5982,3.5982,3.5982,3.5982,3.5982,3.5982,3.5982,3.5982,3.5982,3.5982,3.5982,3.5982,3.5982,3.5982,3.5982,3.5982,3.5982,3.5982,3.5982,3.5982,3.5982,3.6289,3.7051,3.7598,3.8047,3.8398,3.8552,3.8611,3.8611,3.8611,3.8611,3.8611,3.8611,3.8611,3.8611,3.8876,3.982,4.1636,4.3976,4.5989,4.767,4.7732,4.745,4.6923,4.6923,4.6697,4.6301,4.6301,4.6301,2.866,2.9735,3.082,3.1875,3.2793,3.3386,3.3386,3.3386,3.3672,3.4531,3.4707,3.4961,3.5825,3.5982,3.5982,3.5982,0.0,0.0,0.0,0.0,0.0,0.0,0.0,0.0,0.0,0.0,0.0,0.0,0.0,3.5982,3.5982,3.5982,3.5982,3.5982,3.5982,3.5982,3.5982,3.5982,3.5982,3.5982,3.5982,3.5982,3.5982,3.5982,3.5982,3.5982,3.5982,3.5982,3.5982,3.5982,3.5982,3.5982,3.5982,3.5982,3.5982,3.5982,3.5982,3.5982,3.5982,3.5982,3.5982,3.5982,3.5982,3.5982,3.5982,3.5982,3.5982,3.5982,3.5982,3.5982,3.5982,3.5982,3.5982,3.5982,3.5982,3.5982,3.5982,3.5982,3.5982,3.5982,3.5982,3.5982,3.5982,3.6367,3.6777,3.7226,3.7832,3.832,3.8591,3.8611,3.8611,3.8611,3.8611,3.8611,3.8611,3.8611,3.8611,3.8611,3.8611,3.9405,4.122,4.3465,4.5404,4.6961,4.7843,4.8058,4.7475,4.7475,4.7199,4.6672,4.6672,4.6547,2.8855,2.9794,3.0742,3.2461,3.3164,0.0,3.3386,3.3386,3.3672,3.4531,3.4707,3.4961,3.5825,3.5982,3.5982,3.5982,0.0,0.0,0.0,0.0,0.0,0.0,0.0,0.0,0.0,0.0,0.0,0.0,0.0,3.5982,3.5982,3.5982,3.5982,3.5982,3.5982,3.5982,3.5982,3.5982,3.5982,3.5982,3.5982,3.5982,3.5982,3.5982,3.5982,3.5982,3.5982,3.5982,3.5982,3.5982,3.5982,3.5982,3.5982,3.5982,3.5982,3.5982,3.5982,3.5982,3.5982,3.5982,3.5982,3.5982,3.5982,3.5982,3.5982,3.5982,3.5982,3.5982,3.5982,3.5982,3.5982,3.5982,3.5982,3.5982,3.5982,3.5982,3.5982,3.5982,3.5982,3.5982,3.5982,3.5982,3.5982,3.6719,3.7305,3.7305,3.8027,3.8611,3.8611,3.8611,3.8611,3.8611,3.8611,3.8611,3.8611,3.8611,3.8611,3.8611,3.8611,3.9261,4.0779,4.2626,4.4256,4.5644,4.7838,4.8667,4.8058,4.8058,4.7782,4.7249,4.7249,4.6998,2.778,2.9364,3.1211,3.291,3.3347,3.3386,0.0,0.0,3.3672,0.0,3.4707,3.4961,3.5825,3.5982,3.5982,0.0,0.0,0.0,0.0,0.0,0.0,0.0,0.0,0.0,0.0,0.0,0.0,0.0,3.5982,3.5982,3.5982,3.5982,3.5982,3.5982,3.5982,3.5982,3.5982,3.5982,3.5982,3.5982,3.5982,3.5982,3.5982,3.5982,3.5982,3.5982,3.5982,3.5982,3.5982,3.5982,3.5982,3.5982,3.5982,3.5982,3.5982,3.5982,3.5982,3.5982,3.5982,3.5982,3.5982,3.5982,3.5982,3.5982,3.5982,3.5982,3.5982,3.5982,3.5982,3.5982,3.5982,3.5982,3.5982,3.5982,3.5982,3.5982,3.5982,3.5982,3.5982,3.5982,3.5982,3.5982,3.5982,3.6719,3.7305,3.7305,3.8027,3.8611,3.8611,3.8611,3.8611,3.8611,3.8611,3.8611,3.8611,3.8611,3.8611,3.8611,3.8611,3.872,3.8955,4.0708,4.2513,4.4312,4.7733,4.9213,4.8693,4.8693,4.836,4.7807,4.7807,4.7757,2.866,2.9961,3.1289,3.2957,3.3386,3.3386,3.3386,3.3386,3.3672,3.4531,3.4707,3.4961,3.5825,3.5982,3.5982,0.0,0.0,0.0,0.0,0.0,0.0,0.0,0.0,0.0,0.0,0.0,0.0,0.0,3.5982,3.5982,3.5982,3.5982,3.5982,3.5982,3.5982,3.5982,3.5982,3.5982,3.5982,3.5982,3.5982,3.5982,3.5982,3.5982,3.5982,3.5982,3.5982,3.5982,3.5982,3.5982,3.5982,3.5982,3.5982,3.5982,3.5982,3.5982,3.5982,3.5982,3.5982,3.5982,3.5982,3.5982,3.5982,3.5982,3.5982,3.5982,3.5982,3.5982,3.5982,3.5982,3.5982,3.5982,3.5982,3.5982,3.5982,3.5982,3.5982,3.5982,3.5982,3.5982,3.5982,3.6094,3.6348,3.6894,3.7383,3.7617,3.8184,3.8611,3.8611,3.8611,3.8611,3.8611,3.8611,3.8611,3.8611,3.8611,3.8611,3.8611,3.8611,3.8611,3.8611,4.0336,4.2171,4.4082,4.6689,4.8419,4.927,4.927,4.8937,4.8385,4.8385,4.8209,2.9082,3.0039,3.082,3.2656,3.3184,3.325,0.0,0.0,3.3672,0.0,3.4707,3.4961,3.5825,3.5982,3.5982,0.0,0.0,0.0,0.0,0.0,0.0,0.0,0.0,0.0,0.0,0.0,0.0,0.0,3.5982,3.5982,3.5982,3.5982,3.5982,3.5982,3.5982,3.5982,3.5982,3.5982,3.5982,3.5982,3.5982,3.5982,3.5982,3.5982,3.5982,3.5982,3.5982,3.5982,3.5982,3.5982,3.5982,3.5982,3.5982,3.5982,3.5982,3.5982,3.5982,3.5982,3.5982,3.5982,3.5982,3.5982,3.5982,3.5982,3.5982,3.5982,3.5982,3.5982,3.5982,3.5982,3.5982,3.5982,3.5982,3.5982,3.5982,3.5982,3.5982,3.5982,3.5982,3.5982,3.6113,3.6289,3.6656,3.7109,3.7559,3.7835,3.8301,3.8611,3.8611,3.8611,3.8611,3.8611,3.8611,3.8611,3.8611,3.8611,3.8611,3.8611,3.8611,3.8611,3.8611,4.0336,4.2171,4.4082,4.5895,4.7707,4.959,4.959,4.9389,4.9019,4.9019,4.8761,2.791,2.8691,2.9531,3.1729,3.257,3.293,0.0,0.0,3.3672,3.4531,3.4707,3.4961,3.5825,3.5982,3.5982,0.0,0.0,0.0,0.0,0.0,0.0,0.0,0.0,0.0,0.0,0.0,0.0,0.0,3.5982,3.5982,3.5982,3.5982,3.5982,3.5982,3.5982,3.5982,3.5982,3.5982,3.5982,3.5982,3.5982,3.5982,3.5982,3.5982,3.5982,3.5982,3.5982,3.5982,3.5982,3.5982,3.5982,3.5982,3.5982,3.5982,3.5982,3.5982,3.5982,3.5982,3.5982,3.5982,3.5982,3.5982,3.5982,3.5982,3.5982,3.5982,3.5982,3.5982,3.5982,3.5982,3.5982,3.5982,3.5982,3.5982,3.5982,3.5982,3.5982,3.5982,3.5982,3.5982,3.6348,3.6675,3.6695,3.7344,3.7874,3.7874,3.8301,3.8611,3.8611,3.8611,3.8611,3.8611,3.8611,3.8611,3.8611,3.8611,3.8611,3.8611,3.8611,3.8611,3.8611,4.0336,4.2171,4.4082,4.5895,4.7707,4.959,4.959,4.959,4.9565,4.9565,4.954,2.7832,2.8398,2.9043,3.1211,3.207,3.2531,3.293,3.3191,3.3594,3.418,3.4512,3.4883,3.5508,3.584,3.5982,0.0,0.0,0.0,0.0,0.0,0.0,0.0,0.0,0.0,0.0,0.0,0.0,0.0,0.0,3.5982,3.5982,3.5982,3.5982,3.5982,3.5982,3.5982,3.5982,3.5982,3.5982,3.5982,3.5982,3.5982,3.5982,3.5982,3.5982,3.5982,3.5982,3.5982,3.5982,3.5982,3.5982,3.5982,3.5982,3.5982,3.5982,3.5982,3.5982,3.5982,3.5982,3.5982,3.5982,3.5982,3.5982,3.5982,3.5982,3.6211,3.6445,3.6445,3.6641,3.6836,3.6836,3.6836,3.6836,3.6836,3.6836,3.6836,3.6836,3.6621,3.6523,3.6777,3.6973,3.7168,3.7422,3.7734,3.7991,3.8301,3.8476,3.8611,3.8611,3.8611,3.8611,3.8611,3.8611,3.8611,3.8611,3.8611,3.8611,3.8611,3.8611,3.8611,3.8611,3.9225,4.0443,4.2277,4.4128,4.6556,4.959,4.959,4.959,4.959,4.959,4.959,2.748,2.7969,2.8601,3.0566,3.1406,3.1964,3.2637,3.3008,3.3379,3.3997,3.4414,3.4844,3.5312,3.5742,3.5982,0.0,0.0,0.0,0.0,0.0,0.0,0.0,0.0,0.0,0.0,0.0,0.0,0.0,0.0,0.0,3.5982,3.5982,3.5982,3.5982,3.5982,3.5982,3.5982,3.5982,3.5982,3.5982,3.5982,3.5982,3.5982,3.5982,3.5982,3.5982,3.5982,3.5982,3.5982,3.5982,3.5982,3.5982,3.5982,3.5982,3.5982,3.5982,3.5982,3.5982,3.5982,3.5982,3.5982,3.5982,3.6113,3.623,3.623,3.6543,3.691,3.691,3.709,3.7305,3.7305,3.7305,3.7305,3.7305,3.7305,3.7344,3.748,3.7187,3.6988,3.7246,3.7402,3.7598,3.7835,3.8047,3.8242,3.8535,3.8611,3.8611,3.8611,3.8611,3.8611,3.8611,3.8611,3.8611,3.8611,3.8611,3.8611,3.8611,3.8611,3.8611,3.8611,3.9782,4.0992,4.2241,4.4676,4.7145,4.959,4.959,4.959,4.959,4.959,4.959,0.0,0.0,0.0,0.0,0.0,0.0,3.2441,0.0,3.3008,3.3899,3.4375,3.4824,3.5273,3.5703,3.5962,0.0,0.0,0.0,0.0,0.0,0.0,0.0,0.0,0.0,0.0,0.0,0.0,0.0,3.5982,3.5982,3.5982,3.5982,3.5982,3.5982,3.5982,3.5982,3.5982,3.5982,3.5982,3.5982,3.5982,3.5982,3.5982,3.5982,3.5982,3.5982,3.5982,3.5982,3.5982,3.5982,3.5982,3.5982,3.5982,3.5982,3.5982,3.5982,3.5982,3.5982,3.5982,3.5982,3.5982,3.6001,3.6328,3.6714,3.6714,3.6992,3.7324,3.7324,3.7324,3.7324,3.7324,3.7324,3.7324,3.7324,3.7324,3.7441,3.7851,3.7617,3.7324,3.7324,3.7656,3.7913,3.7913,3.8301,3.8611,3.8611,3.8611,3.8611,3.8611,3.8611,3.8611,3.8611,3.8611,3.8611,3.8611,3.8611,3.8611,3.8611,3.8611,3.8611,3.8611,4.2031,4.3978,4.4013,4.7599,4.9461,4.9525,4.9558,4.959,4.959,4.959,4.959,2.6752,0.0,0.0,0.0,0.0,0.0,0.0,0.0,3.2531,3.3027,3.373,3.431,3.4446,3.5059,3.5566,0.0,0.0,0.0,0.0,0.0,0.0,0.0,0.0,0.0,0.0,0.0,0.0,0.0,3.5982,3.5982,3.5982,3.5982,3.5982,3.5982,3.5982,3.5982,3.5982,3.5982,3.5982,3.5982,3.5982,3.5982,3.5982,3.5982,3.5982,3.5982,3.5982,3.5982,3.5982,3.5982,3.5982,3.5982,3.5982,3.5982,3.5982,3.5982,3.5982,3.5982,3.5982,3.5982,3.6074,3.6387,3.6597,3.6753,3.7066,3.7422,3.7718,3.7718,3.7988,3.8259,3.8259,3.8259,3.8259,3.8259,3.8259,3.8262,3.8359,3.8301,3.8259,3.8259,3.832,3.8398,3.8398,3.8496,3.8611,3.8611,3.8611,3.8611,3.8611,3.8611,3.8611,3.8611,3.8611,3.8611,3.8611,3.8611,3.8611,3.8611,3.8611,3.8611,3.8611,3.9586,4.0728,4.2066,4.4402,4.6254,4.7575,4.8925,4.959,4.959,4.959,4.959,0.0,0.0,0.0,0.0,0.0,0.0,3.0879,3.1543,3.2109,0.0,3.3594,3.4114,3.4114,3.4648,3.5176,0.0,0.0,0.0,0.0,0.0,0.0,0.0,0.0,0.0,0.0,3.5982,3.5982,3.5982,3.5982,3.5982,3.5982,3.5982,3.5982,3.5982,3.5982,3.5982,3.5982,3.5982,3.5982,3.5982,3.5982,3.5982,3.5982,3.5982,3.5982,3.5982,3.5982,3.5982,3.5982,3.5982,3.5982,3.5982,3.5982,3.5982,3.5982,3.5982,3.5982,3.6035,3.623,3.6289,3.6367,3.6797,3.7051,3.7246,3.748,3.7851,3.8203,3.8203,3.8379,3.8611,3.8611,3.8611,3.8611,3.8611,3.8611,3.8611,3.8611,3.8611,3.8611,3.8611,3.8611,3.8611,3.8611,3.8611,3.8611,3.8611,3.8611,3.8611,3.8611,3.8611,3.8611,3.8611,3.8611,3.8611,3.8611,3.8611,3.8611,3.8611,3.8611,3.8611,3.8611,3.9333,4.0586,4.2452,4.4299,4.613,4.7962,4.908,4.959,4.959,4.959,4.959,0.0,0.0,0.0,0.0,0.0,0.0,3.083,3.1309,3.1669,0.0,3.3516,3.3899,3.3899,3.4199,3.4629,0.0,0.0,0.0,0.0,0.0,0.0,0.0,0.0,0.0,3.5982,3.5982,3.5982,3.5982,3.5982,3.5982,3.5982,3.5982,3.5982,3.5982,3.5982,3.5982,3.5982,3.5982,3.5982,3.5982,3.5982,3.5982,3.5982,3.5982,3.5982,3.5982,3.5982,3.5982,3.5982,3.5982,3.5982,3.5982,3.5982,3.5982,3.5982,3.5982,3.6021,3.6152,3.6577,3.6734,3.6851,3.7226,3.7617,3.7894,3.7952,3.8262,3.8611,3.8611,3.8611,3.8611,3.8611,3.8611,3.8611,3.8611,3.8611,3.8611,3.8611,3.8611,3.8611,3.8611,3.8611,3.8611,3.8611,3.8611,3.8611,3.8611,3.8611,3.8611,3.8611,3.8611,3.8611,3.8611,3.8611,3.8611,3.8611,3.8611,3.8611,3.8611,3.8611,3.8611,3.8611,4.0157,4.1996,4.4082,4.6063,4.7929,4.959,4.959,4.959,4.959,4.959,4.959,0.0,0.0,0.0,0.0,0.0,0.0,2.9277,2.9961,3.0625,0.0,3.2042,3.257,3.257,3.2891,3.3203,0.0,0.0,0.0,0.0,0.0,0.0,0.0,0.0,0.0,3.5982,3.5982,3.5982,3.5982,3.5982,3.5982,3.5982,3.5982,3.5982,3.5982,3.5982,3.5982,3.5982,3.5982,3.5982,3.5982,3.5982,3.5982,3.5982,3.5982,3.5982,3.5982,3.5982,3.5982,3.5982,3.5982,3.5982,3.5982,3.5982,3.5982,3.5982,3.5982,3.625,3.6597,3.6675,3.6894,3.7246,3.7676,3.7851,3.7952,3.834,3.8552,3.8611,3.8611,3.8611,3.8611,3.8611,3.8611,3.8611,3.8611,3.8611,3.8611,3.8611,3.8611,3.8611,3.8611,3.8611,3.8611,3.8611,3.8611,3.8611,3.8611,3.8611,3.8611,3.8611,3.8611,3.8611,3.8611,3.8611,3.8611,3.8611,3.8611,3.8611,3.8611,3.8611,3.8611,3.8611,3.8955,4.0693,4.4025,4.7368,4.9242,4.959,4.959,4.959,4.959,4.959,4.959,0.0,0.0,0.0,2.8242,0.0,0.0,0.0,2.957,3.0106,3.0762,3.126,3.1553,3.1553,0.0,3.2226,0.0,0.0,0.0,0.0,0.0,0.0,0.0,0.0,0.0,3.5982,3.5982,3.5982,3.5982,3.5982,3.5982,3.5982,3.5982,3.5982,3.5982,3.5982,3.5982,3.5982,3.5982,3.5982,3.5982,3.5982,3.5982,3.5982,3.5982,3.5982,3.5982,3.5982,3.5982,3.5982,3.5982,3.5982,3.5982,3.5982,3.5982,3.6035,3.6269,3.6519,3.6773,3.7148,3.7441,3.7676,3.8105,3.8242,3.8281,3.8552,3.8611,3.8611,3.8611,3.8611,3.8611,3.8611,3.8611,3.8611,3.8611,3.8611,3.8611,3.8611,3.8611,3.8611,3.8611,3.8611,3.8611,3.8611,3.8611,3.8611,3.8611,3.8611,3.8611,3.8611,3.8611,3.8611,3.8611,3.8611,3.8611,3.8611,3.8611,3.8611,3.8611,3.8611,3.8611,3.8611,3.8611,4.0336,4.4047,4.7731,4.959,4.959,4.959,4.959,4.959,4.959,4.959,0.0,0.0,0.0,0.0,0.0,2.8574,0.0,0.0,0.0,0.0,0.0,0.0,0.0,0.0,0.0,0.0,0.0,0.0,0.0,0.0,0.0,0.0,0.0,0.0,3.5864,3.5864,3.5937,3.5982,3.5937,3.5937,3.6016,3.5982,3.5982,3.5982,3.5982,3.5982,3.5982,3.5982,3.5982,3.5982,3.5982,3.5982,3.5982,3.5982,3.5982,3.5982,3.5982,3.5982,3.5982,3.5982,3.5982,3.5982,3.5982,3.6074,3.6191,3.6577,3.6812,3.7012,3.766,3.7969,3.8105,3.8457,3.8611,3.8611,3.8611,3.8611,3.8611,3.8611,3.8611,3.8611,3.8611,3.8611,3.8611,3.8611,3.8611,3.8611,3.8611,3.8611,3.8611,3.8611,3.8611,3.8611,3.8611,3.8611,3.8611,3.8611,3.8611,3.8611,3.8611,3.8611,3.8611,3.8611,3.8611,3.8611,3.8611,3.8611,3.8611,3.8611,3.8611,3.8611,3.8611,3.9261,4.1205,4.4539,4.7896,4.959,4.959,4.959,4.959,4.959,4.959,4.959,0.0,0.0,0.0,0.0,2.8574,0.0,0.0,0.0,0.0,0.0,0.0,0.0,0.0,0.0,0.0,0.0,0.0,0.0,0.0,0.0,0.0,0.0,0.0,0.0,0.0,3.5469,3.5625,3.5962,3.5664,3.5625,3.5962,3.5982,3.5982,3.5982,3.5982,3.5982,3.5982,3.5982,3.5982,3.5982,3.5982,3.5982,3.5982,3.5982,3.5982,3.5982,3.5982,3.5982,3.5982,3.5982,3.5982,3.5982,3.5982,3.625,3.6636,3.6695,3.7148,3.7793,3.7855,3.8184,3.8552,3.8591,3.8611,3.8611,3.8611,3.8611,3.8611,3.8611,3.8611,3.8611,3.8611,3.8611,3.8611,3.8611,3.8611,3.8611,3.8611,3.8611,3.8611,3.8611,3.8611,3.8611,3.8611,3.8611,3.8611,3.8611,3.8611,3.8611,3.8611,3.8611,3.8611,3.8611,3.8611,3.8611,3.8611,3.8611,3.8611,3.8611,3.8611,3.8611,3.8611,4.1735,4.4436,4.6432,4.8542,4.959,4.959,4.959,4.959,4.959,4.959,4.959,0.0,0.0,0.0,0.0,0.0,0.0,0.0,0.0,2.8555,0.0,0.0,0.0,0.0,0.0,0.0,0.0,3.0918,0.0,0.0,0.0,0.0,0.0,0.0,0.0,0.0,0.0,0.0,0.0,3.5859,3.584,3.5982,3.5982,3.5982,3.5982,3.5982,3.5982,3.5982,3.5982,3.5982,3.5982,3.5982,3.5982,3.5982,3.5982,3.5982,3.5982,3.5982,3.5982,3.5982,3.5982,3.5982,3.6035,3.6289,3.6538,3.6773,3.7226,3.7617,3.7933,3.8223,3.8418,3.8611,3.8611,3.8611,3.8611,3.8611,3.8611,3.8611,3.8611,3.8611,3.8611,3.8611,3.8611,3.8611,3.8611,3.8611,3.8611,3.8611,3.8611,3.8611,3.8611,3.8611,3.8611,3.8611,3.8611,3.8611,3.8611,3.8611,3.8611,3.8611,3.8611,3.8611,3.8611,3.8611,3.8611,3.8611,3.8611,3.8611,3.8611,3.8611,3.9063,4.0121,4.2696,4.4948,4.6765,4.864,4.959,4.959,4.959,4.959,4.959,4.959,4.959,2.9489,0.0,0.0,0.0,0.0,0.0,0.0,0.0,0.0,0.0,0.0,0.0,0.0,0.0,0.0,0.0,0.0,3.123,0.0,0.0,0.0,0.0,0.0,0.0,0.0,0.0,0.0,3.584,3.5859,3.5864,3.5982,3.5982,3.5982,3.5982,3.5982,3.5982,3.5982,3.5982,3.5982,3.5982,3.5982,3.5982,3.5982,3.5982,3.5982,3.5982,3.5982,3.5982,3.6001,3.6152,3.6191,3.625,3.6797,3.7012,3.709,3.766,3.7972,3.8144,3.8457,3.8611,3.8611,3.8611,3.8611,3.8611,3.8611,3.8611,3.8611,3.8611,3.8611,3.8611,3.8611,3.8611,3.8611,3.8611,3.8611,3.8611,3.8611,3.8611,3.8611,3.8611,3.8611,3.8611,3.8611,3.8611,3.8611,3.8611,3.8611,3.8611,3.8611,3.8611,3.8611,3.8611,3.8611,3.8611,3.8611,3.8611,3.8611,3.8611,3.8611,3.9405,4.122,4.3092,4.4948,4.6765,4.864,4.959,4.959,4.959,4.959,4.959,4.959,4.959,0.0,0.0,0.0,2.9211,0.0,0.0,0.0,0.0,2.8879,0.0,0.0,0.0,0.0,0.0,0.0,3.0781,0.0,0.0,0.0,0.0,0.0,0.0,0.0,0.0,0.0,0.0,3.4525,3.5351,3.541,3.5586,3.5962,3.5982,3.5982,3.5982,3.5982,3.5982,3.5982,3.5982,3.5982,3.5982,3.5982,3.5982,3.5982,3.5982,3.5982,3.5982,3.5982,3.5982,3.6055,3.6484,3.6675,3.6773,3.7559,3.7855,3.7855,3.7874,3.8184,3.8591,3.8611,3.8611,3.8611,3.8611,3.8611,3.8611,3.8611,3.8611,3.8611,3.8611,3.8611,3.8611,3.8611,3.8611,3.8611,3.8611,3.8611,3.8611,3.8611,3.8611,3.8611,3.8611,3.8611,3.8611,3.8611,3.8611,3.8611,3.8611,3.8611,3.8611,3.8611,3.8611,3.8611,3.8611,3.8611,3.8611,3.8611,3.8611,3.8611,3.8611,3.8611,3.9405,4.122,4.3092,4.4948,4.6765,4.864,4.959,4.959,4.959,4.959,4.959,4.959,4.959,0.0,0.0,2.8632,2.8473,0.0,0.0,0.0,0.0,0.0,0.0,0.0,0.0,0.0,0.0,3.0254,3.041,3.0684,0.0,0.0,0.0,0.0,0.0,0.0,0.0,0.0,0.0,0.0,3.4902,3.5469,3.5879,3.5982,3.5982,3.5982,3.5982,3.5982,3.5982,3.5982,3.5982,3.5982,3.5982,3.5982,3.5982,3.5982,3.5982,3.5982,3.6001,3.6328,3.6445,3.6484,3.6914,3.709,3.7148,3.7695,3.7894,3.7933,3.8242,3.8457,3.8611,3.8611,3.8611,3.8611,3.8611,3.8611,3.8611,3.8611,3.8611,3.8611,3.8611,3.8611,3.8611,3.8611,3.8611,3.8611,3.8611,3.8611,3.8611,3.8611,3.8611,3.8611,3.8611,3.8611,3.8611,3.8611,3.8611,3.8611,3.8611,3.8611,3.8611,3.8611,3.8611,3.8611,3.8611,3.8611,3.8611,3.8611,3.8611,3.8611,3.8611,3.8611,3.9405,4.122,4.3092,4.4948,4.6765,4.864,4.959,4.959,4.959,4.959,4.959,4.959,4.959,2.6824,2.7261,0.0,2.7524,2.7975,0.0,2.8436,0.0,0.0,0.0,0.0,0.0,0.0,0.0,0.0,3.0644,3.0801,3.0898,0.0,3.0898,0.0,0.0,0.0,0.0,0.0,0.0,3.4199,3.4668,3.5391,3.5859,0.0,0.0,3.5982,3.5982,3.5982,3.5982,3.5982,3.5982,3.5982,3.5982,3.5982,3.5982,3.5982,3.5982,3.6094,3.6269,3.6577,3.6792,3.6934,3.7344,3.7519,3.7559,3.7988,3.8164,3.8184,3.8513,3.8611,3.8611,3.8611,3.8611,3.8611,3.8611,3.8611,3.8611,3.8611,3.8611,3.865,3.875,3.8728,3.865,3.8787,3.8728,3.8611,3.8611,3.8611,3.8611,3.8611,3.8611,3.8611,3.8611,3.8611,3.8611,3.8611,3.8611,3.8611,3.8611,3.8611,3.8611,3.8611,3.8611,3.8611,3.8611,3.8611,3.8611,3.8611,3.8611,3.8611,3.8611,3.8611,3.9136,4.03,4.2766,4.4732,4.6107,4.8412,4.969,4.9891,4.969,4.959,4.959,4.959,4.959]},{"header":{"parameterUnit":"m.s-1","parameterCategory":1,"la1":30.6,"la2":29.2853,"lo1":-89.7004,"lo2":-87.6739,"dy":0.0162,"dx":0.0183,"nx":112,"ny":82,"refTime":"2023-03-01T06:00:00:Z","depth":0,"parameterNumber":3,"parameterNumberName":"V-component_of_WINDS"},"data":[0.0,0.0,0.0,0.0,0.0,0.0,0.0,0.0,0.0,0.0,0.0,0.0,0.0,0.0,0.0,0.0,0.0,0.0,0.0,0.0,0.0,0.0,0.0,0.0,0.0,0.0,0.0,0.0,0.0,0.0,0.0,0.0,0.0,0.0,0.0,0.0,0.0,0.0,0.0,0.0,0.0,0.0,0.0,0.0,0.0,0.0,0.0,0.0,0.0,0.0,0.0,0.0,0.0,0.0,0.0,0.0,0.0,0.0,0.0,0.0,0.0,0.0,0.0,0.0,0.0,0.0,0.0,0.0,0.0,0.0,0.0,0.0,0.0,0.0,0.0,0.0,0.0,0.0,0.0,0.0,0.0,0.0,0.0,0.0,0.0,0.0,0.0,0.0,0.0,0.0,0.0,2.9342,2.9648,2.9856,3.0011,3.1489,3.1227,2.8493,0.0,0.0,0.0,0.0,0.0,0.0,0.0,0.0,0.0,0.0,0.0,0.0,0.0,0.0,0.0,0.0,0.0,0.0,0.0,0.0,0.0,0.0,0.0,0.0,0.0,0.0,0.0,0.0,0.0,0.0,0.0,0.0,0.0,0.0,0.0,0.0,0.0,0.0,0.0,0.0,0.0,0.0,0.0,0.0,0.0,0.0,0.0,0.0,0.0,0.0,0.0,0.0,0.0,0.0,0.0,0.0,0.0,0.0,0.0,0.0,0.0,0.0,0.0,0.0,0.0,0.0,0.0,0.0,0.0,0.0,0.0,0.0,0.0,0.0,0.0,0.0,0.0,0.0,0.0,0.0,0.0,0.0,0.0,0.0,0.0,0.0,0.0,0.0,0.0,0.0,0.0,0.0,0.0,0.0,0.0,0.0,0.0,0.0,0.0,0.0,0.0,0.0,0.0,0.0,2.8529,2.9637,2.9775,3.012,3.0914,3.1241,3.0819,2.9372,0.0,0.0,0.0,0.0,0.0,0.0,0.0,0.0,0.0,0.0,0.0,0.0,0.0,0.0,0.0,0.0,0.0,0.0,0.0,0.0,0.0,0.0,0.0,0.0,0.0,0.0,0.0,0.0,0.0,0.0,0.0,0.0,0.0,0.0,0.0,0.0,0.0,0.0,0.0,0.0,0.0,0.0,0.0,0.0,0.0,0.0,0.0,0.0,0.0,0.0,0.0,0.0,0.0,0.0,0.0,0.0,0.0,0.0,0.0,0.0,0.0,0.0,0.0,0.0,0.0,0.0,0.0,0.0,0.0,0.0,0.0,0.0,0.0,0.0,0.0,0.0,0.0,0.0,0.0,0.0,0.0,0.0,0.0,0.0,0.0,0.0,0.0,0.0,0.0,0.0,0.0,0.0,0.0,0.0,0.0,0.0,0.0,0.0,0.0,0.0,0.0,0.0,0.0,2.9597,3.0153,3.139,3.1539,3.1707,3.2143,3.3182,3.3081,3.1384,3.3372,0.0,0.0,0.0,0.0,0.0,0.0,0.0,0.0,0.0,0.0,0.0,0.0,0.0,0.0,0.0,0.0,0.0,0.0,0.0,0.0,0.0,0.0,0.0,0.0,0.0,0.0,0.0,0.0,0.0,0.0,0.0,0.0,0.0,0.0,0.0,0.0,0.0,0.0,0.0,0.0,0.0,0.0,0.0,0.0,0.0,0.0,0.0,0.0,0.0,0.0,0.0,0.0,0.0,0.0,0.0,0.0,0.0,0.0,0.0,0.0,0.0,0.0,0.0,0.0,0.0,0.0,0.0,0.0,0.0,0.0,0.0,0.0,0.0,0.0,0.0,0.0,0.0,0.0,0.0,0.0,0.0,0.0,0.0,0.0,0.0,0.0,0.0,0.0,0.0,0.0,0.0,0.0,0.0,0.0,0.0,0.0,0.0,0.0,0.0,0.0,0.0,0.0,3.1412,3.1951,3.3238,3.315,3.3189,3.3665,3.5122,3.5171,3.3234,3.4622,0.0,0.0,0.0,0.0,0.0,0.0,0.0,0.0,0.0,0.0,0.0,0.0,0.0,0.0,0.0,0.0,0.0,0.0,0.0,0.0,0.0,0.0,0.0,0.0,0.0,0.0,0.0,0.0,0.0,0.0,0.0,0.0,0.0,0.0,0.0,0.0,0.0,0.0,0.0,0.0,0.0,0.0,0.0,0.0,0.0,0.0,0.0,0.0,0.0,0.0,0.0,0.0,0.0,0.0,0.0,0.0,0.0,0.0,0.0,0.0,0.0,0.0,0.0,0.0,0.0,0.0,0.0,0.0,0.0,0.0,0.0,0.0,0.0,0.0,0.0,0.0,0.0,0.0,0.0,0.0,0.0,0.0,0.0,0.0,0.0,0.0,0.0,0.0,0.0,0.0,0.0,0.0,0.0,0.0,0.0,0.0,0.0,0.0,0.0,0.0,0.0,0.0,3.222,3.3276,3.4369,3.3615,3.3761,3.5614,3.5931,3.5454,3.4167,3.4971,0.0,0.0,0.0,0.0,0.0,0.0,0.0,0.0,0.0,0.0,0.0,0.0,0.0,0.0,0.0,0.0,0.0,0.0,0.0,0.0,0.0,0.0,0.0,0.0,0.0,0.0,0.0,0.0,0.0,0.0,0.0,0.0,0.0,0.0,0.0,0.0,0.0,0.0,0.0,0.0,0.0,0.0,0.0,0.0,0.0,0.0,0.0,0.0,0.0,0.0,0.0,0.0,0.0,0.0,0.0,0.0,0.0,0.0,0.0,0.0,0.0,0.0,0.0,0.0,0.0,0.0,0.0,0.0,0.0,0.0,0.0,0.0,0.0,0.0,0.0,0.0,0.0,0.0,0.0,0.0,0.0,0.0,0.0,0.0,0.0,0.0,0.0,0.0,0.0,0.0,0.0,0.0,0.0,0.0,0.0,0.0,0.0,0.0,0.0,0.0,0.0,0.0,3.4377,3.5047,0.0,3.623,3.6306,3.7057,3.7758,3.7588,3.6276,0.0,0.0,0.0,0.0,0.0,0.0,0.0,0.0,0.0,0.0,0.0,0.0,0.0,0.0,0.0,0.0,0.0,0.0,0.0,0.0,0.0,0.0,0.0,0.0,0.0,0.0,0.0,0.0,0.0,0.0,0.0,0.0,0.0,0.0,0.0,0.0,0.0,0.0,0.0,0.0,0.0,0.0,0.0,0.0,0.0,0.0,0.0,0.0,0.0,0.0,0.0,0.0,0.0,0.0,0.0,0.0,0.0,0.0,0.0,0.0,0.0,0.0,0.0,0.0,0.0,0.0,0.0,0.0,0.0,0.0,0.0,0.0,0.0,0.0,0.0,0.0,0.0,0.0,0.0,0.0,0.0,0.0,0.0,0.0,0.0,0.0,0.0,0.0,0.0,0.0,0.0,0.0,0.0,0.0,0.0,0.0,0.0,0.0,0.0,0.0,0.0,0.0,3.5852,3.6098,3.6703,0.0,3.7994,3.7937,3.8275,3.898,3.8823,3.7477,0.0,0.0,0.0,0.0,0.0,0.0,0.0,0.0,0.0,0.0,0.0,0.0,0.0,0.0,0.0,0.0,0.0,0.0,0.0,0.0,0.0,0.0,0.0,0.0,0.0,0.0,0.0,0.0,0.0,0.0,0.0,0.0,0.0,0.0,0.0,0.0,0.0,0.0,0.0,0.0,0.0,0.0,0.0,0.0,0.0,0.0,0.0,0.0,0.0,0.0,0.0,0.0,0.0,0.0,0.0,0.0,0.0,0.0,0.0,0.0,0.0,0.0,0.0,0.0,0.0,0.0,0.0,0.0,0.0,0.0,0.0,0.0,0.0,0.0,0.0,0.0,0.0,0.0,0.0,0.0,0.0,0.0,0.0,0.0,0.0,0.0,0.0,0.0,0.0,0.0,0.0,0.0,0.0,0.0,0.0,0.0,0.0,0.0,0.0,0.0,0.0,0.0,3.6146,3.7074,3.8219,3.9283,3.8453,3.8238,3.9301,3.9391,3.8823,0.0,0.0,0.0,0.0,0.0,0.0,0.0,0.0,0.0,0.0,0.0,0.0,0.0,0.0,0.0,0.0,0.0,0.0,0.0,0.0,0.0,0.0,0.0,0.0,0.0,0.0,0.0,0.0,0.0,0.0,0.0,0.0,0.0,0.0,0.0,0.0,0.0,0.0,0.0,0.0,0.0,0.0,0.0,0.0,0.0,0.0,0.0,0.0,0.0,0.0,0.0,0.0,0.0,0.0,0.0,0.0,0.0,0.0,0.0,0.0,0.0,0.0,0.0,0.0,0.0,0.0,0.0,0.0,0.0,0.0,0.0,0.0,0.0,0.0,0.0,0.0,0.0,0.0,0.0,0.0,0.0,0.0,0.0,0.0,0.0,0.0,0.0,0.0,0.0,0.0,0.0,0.0,0.0,0.0,0.0,0.0,0.0,0.0,0.0,0.0,0.0,0.0,0.0,3.7013,3.8115,3.9035,3.9355,3.9108,3.9053,3.9355,3.9391,3.8823,3.7477,0.0,0.0,0.0,0.0,0.0,0.0,0.0,0.0,0.0,0.0,0.0,0.0,0.0,0.0,0.0,0.0,0.0,0.0,0.0,0.0,0.0,0.0,0.0,0.0,0.0,0.0,0.0,0.0,0.0,0.0,0.0,0.0,0.0,0.0,0.0,0.0,0.0,0.0,0.0,0.0,0.0,0.0,0.0,0.0,0.0,0.0,0.0,0.0,0.0,0.0,0.0,0.0,0.0,0.0,0.0,0.0,0.0,0.0,0.0,0.0,0.0,0.0,0.0,0.0,0.0,0.0,0.0,0.0,0.0,0.0,0.0,0.0,0.0,0.0,0.0,0.0,0.0,0.0,0.0,0.0,0.0,0.0,0.0,0.0,0.0,0.0,0.0,0.0,0.0,0.0,0.0,0.0,0.0,0.0,0.0,0.0,0.0,0.0,0.0,0.0,0.0,0.0,3.7764,3.8733,3.9391,3.9391,3.9391,3.9391,3.9391,3.9391,3.8943,3.7883,0.0,0.0,0.0,0.0,0.0,0.0,0.0,0.0,0.0,0.0,0.0,0.0,0.0,0.0,0.0,0.0,0.0,0.0,0.0,0.0,0.0,0.0,0.0,0.0,0.0,0.0,0.0,0.0,0.0,0.0,0.0,0.0,0.0,0.0,0.0,0.0,0.0,0.0,0.0,0.0,0.0,0.0,0.0,0.0,0.0,0.0,0.0,0.0,0.0,0.0,0.0,0.0,0.0,0.0,0.0,0.0,0.0,0.0,0.0,0.0,0.0,0.0,0.0,0.0,0.0,0.0,0.0,0.0,0.0,0.0,0.0,0.0,0.0,0.0,0.0,0.0,0.0,0.0,0.0,0.0,0.0,0.0,0.0,0.0,0.0,0.0,0.0,0.0,0.0,0.0,0.0,0.0,0.0,0.0,0.0,0.0,0.0,0.0,0.0,0.0,0.0,0.0,3.8392,3.914,3.9601,3.9601,3.9601,3.9601,3.9601,3.9601,3.932,3.8631,0.0,0.0,0.0,0.0,0.0,0.0,0.0,0.0,0.0,0.0,0.0,0.0,0.0,0.0,0.0,0.0,0.0,0.0,0.0,0.0,0.0,0.0,0.0,0.0,0.0,0.0,0.0,0.0,0.0,0.0,0.0,0.0,0.0,0.0,0.0,0.0,0.0,0.0,0.0,0.0,0.0,0.0,0.0,0.0,0.0,0.0,0.0,0.0,0.0,0.0,0.0,0.0,0.0,0.0,0.0,0.0,0.0,0.0,0.0,0.0,3.6656,0.0,0.0,0.0,0.0,0.0,0.0,0.0,0.0,0.0,0.0,0.0,0.0,0.0,0.0,0.0,0.0,0.0,0.0,0.0,0.0,0.0,0.0,0.0,0.0,0.0,0.0,0.0,0.0,0.0,0.0,0.0,0.0,0.0,0.0,0.0,0.0,0.0,0.0,0.0,0.0,0.0,3.9152,4.0217,4.0965,4.0965,4.0965,4.0965,4.0965,4.0965,4.0685,4.0008,3.9828,0.0,0.0,0.0,0.0,0.0,0.0,0.0,0.0,0.0,0.0,0.0,0.0,0.0,0.0,0.0,0.0,0.0,0.0,0.0,0.0,0.0,0.0,0.0,0.0,0.0,0.0,0.0,0.0,0.0,0.0,0.0,0.0,0.0,0.0,0.0,0.0,0.0,0.0,0.0,0.0,0.0,0.0,0.0,0.0,0.0,0.0,0.0,0.0,0.0,0.0,0.0,0.0,0.0,0.0,0.0,0.0,0.0,0.0,0.0,0.0,3.7122,0.0,0.0,0.0,0.0,0.0,0.0,0.0,0.0,0.0,0.0,0.0,0.0,0.0,0.0,0.0,0.0,0.0,0.0,0.0,0.0,0.0,0.0,0.0,0.0,0.0,0.0,0.0,0.0,0.0,0.0,0.0,0.0,0.0,0.0,0.0,0.0,0.0,0.0,0.0,0.0,3.984,4.0756,4.1403,4.1403,4.1403,4.1403,4.1403,4.1403,4.1254,4.0894,4.0576,0.0,0.0,0.0,0.0,0.0,0.0,0.0,0.0,0.0,0.0,0.0,0.0,0.0,0.0,0.0,0.0,0.0,0.0,0.0,0.0,0.0,0.0,0.0,0.0,0.0,0.0,0.0,0.0,0.0,0.0,0.0,0.0,0.0,0.0,0.0,0.0,0.0,0.0,0.0,0.0,0.0,0.0,0.0,0.0,0.0,0.0,0.0,0.0,0.0,0.0,0.0,0.0,0.0,3.9269,3.9508,3.975,3.975,4.0068,4.0487,3.8811,3.8332,3.8679,0.0,0.0,0.0,0.0,0.0,0.0,0.0,0.0,0.0,0.0,0.0,0.0,0.0,0.0,0.0,0.0,0.0,0.0,0.0,0.0,0.0,0.0,0.0,0.0,0.0,4.0498,4.0756,0.0,0.0,0.0,0.0,0.0,0.0,0.0,0.0,0.0,0.0,0.0,0.0,4.0666,4.1324,4.1713,4.1713,4.1713,4.1713,4.1713,4.1713,4.1713,4.1713,4.1205,4.0876,0.0,0.0,0.0,0.0,0.0,0.0,0.0,0.0,0.0,0.0,0.0,0.0,0.0,0.0,0.0,0.0,0.0,0.0,0.0,0.0,0.0,0.0,0.0,0.0,0.0,0.0,0.0,0.0,0.0,0.0,0.0,0.0,4.2124,4.2011,0.0,0.0,0.0,0.0,0.0,0.0,0.0,0.0,0.0,0.0,0.0,0.0,0.0,4.147,4.1566,4.2906,4.2816,4.1378,4.2699,4.2589,4.1134,4.1134,4.1194,4.1254,4.0984,0.0,4.0127,3.9948,0.0,0.0,0.0,0.0,0.0,0.0,0.0,0.0,0.0,0.0,0.0,0.0,0.0,0.0,0.0,0.0,0.0,0.0,0.0,0.0,0.0,0.0,4.2801,4.2801,4.2841,4.2871,0.0,4.1455,4.0397,4.0924,4.1014,0.0,0.0,0.0,0.0,0.0,0.0,0.0,4.2051,4.2671,4.307,4.307,4.307,4.307,4.307,4.307,4.307,4.307,4.298,4.2681,4.2171,4.1493,0.0,0.0,0.0,0.0,0.0,0.0,0.0,0.0,0.0,0.0,0.0,0.0,0.0,0.0,0.0,0.0,0.0,0.0,0.0,0.0,0.0,0.0,0.0,0.0,0.0,0.0,0.0,0.0,0.0,4.2097,4.2455,4.2861,4.2645,4.2132,0.0,0.0,0.0,0.0,0.0,0.0,0.0,0.0,0.0,4.2719,4.2752,4.2944,4.3314,4.3978,4.3855,4.2931,4.3604,4.3419,4.2472,4.2472,4.2472,4.2472,4.2472,4.2293,4.1934,4.0846,4.0038,3.9499,0.0,0.0,0.0,0.0,3.8943,3.911,4.0157,4.0516,0.0,4.0176,0.0,0.0,0.0,0.0,0.0,0.0,0.0,0.0,0.0,0.0,4.288,4.322,4.329,4.329,4.329,4.2622,4.2013,0.0,4.1643,4.1194,4.0516,0.0,0.0,0.0,0.0,4.2081,4.2351,4.294,4.329,4.329,4.329,4.329,4.329,4.329,4.329,4.329,4.329,4.319,4.291,4.2301,4.1673,0.0,0.0,0.0,0.0,0.0,0.0,0.0,0.0,0.0,0.0,0.0,0.0,0.0,0.0,0.0,0.0,0.0,0.0,0.0,0.0,0.0,0.0,0.0,0.0,0.0,0.0,0.0,0.0,4.2929,4.3301,4.366,4.3862,4.3693,0.0,0.0,0.0,0.0,0.0,0.0,4.4241,4.3656,4.3749,4.4658,4.4658,4.4903,4.544,4.5193,4.4979,4.4772,4.4299,4.3943,4.3674,4.3428,4.329,4.329,4.329,4.329,4.319,4.1724,4.1055,4.0846,4.0367,4.0068,3.993,4.0098,4.0157,4.0337,4.1474,4.1912,4.1863,4.1703,0.0,4.1991,4.1164,0.0,0.0,0.0,0.0,4.1792,4.2451,4.2631,4.275,4.319,4.329,4.329,4.329,4.319,4.3,0.0,4.2241,4.1683,4.1014,0.0,0.0,0.0,0.0,4.247,4.2601,4.301,4.329,4.329,4.329,4.329,4.329,4.329,4.329,4.329,4.329,4.329,4.329,4.288,4.2541,4.241,0.0,0.0,0.0,0.0,0.0,0.0,0.0,0.0,0.0,0.0,0.0,0.0,0.0,0.0,0.0,0.0,0.0,0.0,0.0,0.0,0.0,0.0,0.0,0.0,0.0,0.0,0.0,0.0,0.0,4.4601,4.5162,0.0,0.0,0.0,0.0,4.4533,4.443,4.5024,4.6543,4.6482,4.7101,4.8643,4.8707,4.8741,4.8759,4.7866,4.744,4.7407,4.562,4.4743,4.4699,4.3732,4.329,4.329,4.329,4.329,4.329,4.317,4.2821,4.2291,4.2261,4.1852,4.1373,4.2021,4.2261,4.2331,4.298,4.32,4.31,4.2541,4.1961,4.1553,4.2141,4.1901,0.0,0.0,4.2351,4.2481,4.31,4.325,4.326,4.329,4.329,4.329,4.329,4.2851,4.2601,0.0,4.325,4.301,4.2391,0.0,4.2351,4.2291,4.2351,4.2601,4.319,4.326,4.329,4.329,4.329,4.329,4.329,4.329,4.329,4.329,4.329,4.329,4.329,4.326,4.3,4.241,4.2381,0.0,0.0,0.0,0.0,0.0,0.0,0.0,0.0,0.0,0.0,0.0,0.0,0.0,0.0,0.0,0.0,0.0,0.0,0.0,0.0,0.0,0.0,0.0,0.0,0.0,0.0,0.0,0.0,4.6056,4.6684,0.0,4.609,4.6447,4.6718,4.6718,4.7105,4.7613,4.8191,4.8182,4.8402,4.8969,4.9018,4.9018,4.9018,4.8655,4.8193,4.7572,4.6934,4.5975,4.4793,4.4415,4.3907,4.329,4.329,4.329,4.329,4.329,4.316,4.3,4.3,4.2831,4.2651,4.2891,4.3,4.301,4.325,4.329,4.326,4.304,4.2821,4.2651,4.291,4.2801,4.2651,4.2891,4.3,4.315,4.3788,4.3938,4.4057,4.4476,4.4586,4.4586,4.4586,4.4407,4.4337,4.4556,4.3569,4.2761,4.294,4.3329,4.3629,4.3629,4.4008,4.4347,4.4556,4.4207,4.3938,4.3938,4.3579,4.329,4.329,4.329,4.329,4.329,4.329,4.329,4.329,4.329,4.322,4.3,4.3,4.2462,0.0,0.0,0.0,0.0,0.0,0.0,0.0,0.0,0.0,0.0,0.0,0.0,0.0,0.0,0.0,0.0,0.0,0.0,0.0,0.0,0.0,0.0,0.0,0.0,0.0,0.0,4.709,4.6834,4.7665,4.7988,4.7259,4.7819,4.8259,4.8259,4.8698,4.9018,4.9018,4.9018,4.9018,4.9018,4.9018,4.912,4.9357,4.9074,4.8854,4.8828,4.8163,4.7212,4.5972,4.5633,4.4936,4.3967,4.3967,4.3967,4.3967,4.3967,4.3967,4.3938,4.3489,4.329,4.329,4.329,4.3459,4.3668,4.3908,4.3967,4.3967,4.3967,4.3967,4.3967,4.3967,4.3967,4.3967,4.3967,4.3967,4.4087,4.4506,4.4646,4.4766,4.5185,4.5304,4.5304,4.5304,4.5304,4.5304,4.5304,4.4247,4.3499,4.3908,4.4326,4.4556,4.4326,4.4885,4.5214,4.4975,4.4766,4.4646,4.4646,4.4237,4.3967,4.3967,4.3758,4.3728,4.3967,4.3758,4.3758,4.3967,4.3549,4.3409,4.3638,4.3429,4.2771,4.1733,0.0,0.0,0.0,0.0,0.0,0.0,0.0,0.0,0.0,0.0,0.0,0.0,0.0,0.0,0.0,0.0,0.0,0.0,0.0,0.0,0.0,0.0,0.0,4.6921,4.7462,4.765,4.6955,4.8139,4.8698,4.8022,4.8563,4.9018,4.9018,4.9018,4.9052,4.9052,4.9052,4.9086,4.9086,4.9086,4.9424,5.015,4.921,4.9576,5.1185,4.9348,4.845,4.8303,4.7415,4.6412,4.5398,4.5398,4.5357,4.5366,4.5366,4.5346,4.5155,4.3878,4.3349,4.3349,4.3349,4.3788,4.4416,4.5065,4.5304,4.5304,4.5304,4.5304,4.5304,4.5304,4.5304,4.5304,4.5304,4.5304,4.5304,4.5334,4.5334,4.5334,4.5364,4.5364,4.5364,4.5364,4.5364,4.5364,4.5364,4.5364,4.5364,4.5334,4.5334,4.5125,4.4496,4.4945,0.0,4.4496,4.4945,4.5304,4.5304,4.5274,4.5274,4.5274,4.4676,4.4586,4.5244,4.4706,4.4616,4.5274,4.4057,4.3668,4.4296,4.3668,4.304,4.247,0.0,0.0,0.0,0.0,0.0,0.0,0.0,0.0,0.0,0.0,0.0,0.0,0.0,0.0,0.0,0.0,0.0,0.0,0.0,0.0,0.0,0.0,4.7819,4.7616,4.8225,4.8597,4.8409,4.8748,4.8917,4.8698,4.8868,4.9018,4.9018,4.9492,4.9796,4.9796,5.0288,5.0592,5.0592,5.0592,5.0694,5.0897,5.0637,5.0738,5.1201,5.0676,5.0039,4.9365,4.9118,4.8487,4.7555,4.7555,4.7114,4.6471,4.6471,4.6001,4.5244,4.4885,4.4766,4.4766,4.4766,4.4855,4.5035,4.5244,4.5304,4.5304,4.5304,4.5304,4.5304,4.5304,4.5304,4.5304,4.5304,4.5304,4.5394,4.5882,4.6031,4.6151,4.6651,4.6741,4.6741,4.6741,4.6741,4.6741,4.6741,4.6741,4.6591,4.6091,4.6031,4.6121,4.6441,4.6651,0.0,4.6501,4.6211,4.5843,4.5334,4.4855,4.4566,4.4566,4.4407,4.4586,4.5244,4.5125,4.5095,4.5274,4.4945,4.4855,4.5035,4.4377,4.3938,0.0,0.0,0.0,0.0,0.0,0.0,0.0,0.0,0.0,0.0,0.0,0.0,0.0,0.0,0.0,0.0,0.0,0.0,0.0,0.0,0.0,0.0,4.8342,4.8935,4.924,4.9104,4.912,4.9424,4.9458,4.9593,4.9882,4.9916,4.9916,4.9916,5.0338,5.0574,5.0574,5.0964,5.1201,5.1201,5.1201,5.1336,5.1641,5.1641,5.181,5.2148,5.2148,5.1631,5.0687,5.0687,4.9888,0.0,4.856,4.7989,4.7079,4.7079,4.6688,0.0,0.0,0.0,0.0,0.0,4.5723,4.5753,4.6052,4.6142,4.6142,4.6142,4.6142,4.6142,4.6142,4.6142,4.6142,4.6142,4.6142,4.6232,4.6621,4.6719,4.6809,4.7219,4.7309,4.7309,4.7309,4.7309,4.7309,4.7309,4.7309,0.0,4.6779,4.6719,4.6749,4.6839,4.713,4.7219,4.692,4.6779,4.657,4.6172,4.5783,4.5574,4.5574,4.5284,0.0,0.0,0.0,4.5603,4.5304,4.5574,0.0,0.0,0.0,4.4736,4.4736,0.0,0.0,0.0,4.269,4.2541,0.0,0.0,0.0,0.0,0.0,0.0,0.0,0.0,0.0,0.0,0.0,0.0,0.0,0.0,0.0,0.0,4.9729,5.0439,5.11,5.0051,4.9492,5.0135,5.0202,5.0473,5.1133,5.1201,5.1201,5.1201,5.1269,5.1336,5.1336,0.0,0.0,0.0,0.0,5.1776,5.2435,5.2435,5.2807,5.3518,5.3518,5.3024,5.2065,5.2065,5.108,4.9336,4.9336,4.8759,4.7807,4.7709,4.7581,4.7332,4.6035,4.5514,4.5603,4.6181,4.642,4.651,4.71,0.0,0.0,4.7309,4.7309,4.7309,4.7309,4.7309,4.7309,4.7309,4.7309,4.7309,4.7309,4.7309,4.7309,4.7309,4.7309,4.7309,4.7309,4.7309,4.7309,4.7309,4.7309,4.7309,4.7309,4.7309,4.71,4.651,4.6899,4.71,4.648,4.6929,4.7279,4.7219,0.0,0.0,4.7189,4.6629,4.66,4.7279,4.6719,4.6151,4.5544,4.6091,4.5852,4.4655,4.5214,4.5514,4.5514,4.5514,4.5514,4.5484,4.4197,4.3898,0.0,0.0,0.0,0.0,0.0,0.0,0.0,0.0,0.0,0.0,0.0,0.0,0.0,0.0,0.0,4.983,5.0507,5.1032,5.1167,5.0964,5.0829,5.0964,5.0998,5.1032,5.1201,5.1201,5.1201,5.1201,5.1742,5.2097,5.2097,5.2706,5.3078,5.3078,5.3078,5.3129,5.3281,5.3281,5.3348,5.3518,0.0,0.0,5.3179,5.3179,5.299,5.2575,5.2575,5.2008,5.0949,5.0126,4.9276,4.8408,4.7343,4.692,4.695,4.707,4.713,4.713,4.7249,4.7309,4.7309,4.7309,4.7309,4.7309,4.7309,4.7309,0.0,4.7309,4.7309,4.7309,4.7309,4.7309,4.7309,4.7309,4.7309,4.7309,4.7309,4.7309,4.7309,4.7309,4.7309,4.7309,4.7309,4.7309,4.7249,4.713,4.7219,4.7249,4.713,4.7219,4.71,4.654,4.648,4.648,4.648,4.636,4.66,4.7279,4.7189,4.707,4.692,4.704,4.698,4.6741,4.686,4.692,4.692,4.692,4.692,4.689,4.5544,4.5005,0.0,0.0,0.0,0.0,0.0,0.0,0.0,0.0,0.0,0.0,0.0,4.868,0.0,0.0,5.0353,5.1082,5.1522,5.1877,5.2283,5.2351,5.2182,5.181,5.1742,5.1911,5.2317,5.2351,5.2351,5.2351,5.2689,5.2909,5.2909,5.3281,5.3518,5.3518,5.3518,5.3518,5.3518,5.3518,5.3518,5.3518,5.3518,5.3518,5.3518,5.3518,5.3196,5.268,5.268,5.2116,5.1099,5.0608,5.0087,4.9556,4.9044,4.8872,4.8872,4.8872,4.8872,4.8872,4.8872,4.8872,4.8872,4.8872,4.8872,4.8769,4.8219,4.8051,4.7946,4.743,4.7309,4.7309,4.7309,4.7309,4.7309,4.7309,4.7309,4.7309,4.7309,4.7309,4.7309,4.7309,4.7309,4.7309,4.7309,4.7309,4.7309,4.7309,4.7309,4.7309,4.7309,4.7309,4.7189,4.6839,4.6779,4.6779,4.6779,4.6779,4.6929,4.7279,4.7309,4.7309,4.7309,4.7309,4.7309,4.7309,4.7309,4.7309,4.7309,4.7309,4.7309,4.7279,4.6621,4.6292,0.0,0.0,0.0,0.0,0.0,0.0,0.0,0.0,4.8563,4.9458,4.9661,4.9864,5.0608,5.0744,5.115,5.2334,5.2536,5.2773,5.3416,5.3518,5.3281,5.2604,5.2536,5.2807,5.345,5.3518,5.3518,5.3518,5.3518,5.3551,5.3721,5.3721,5.3788,5.3923,5.3923,5.3923,5.3923,5.3923,5.3923,5.3923,5.3923,5.3923,5.3923,5.3923,5.3444,5.2654,5.2654,5.2042,5.1141,5.1331,5.1312,5.1141,5.135,5.1426,5.1337,5.0647,5.0262,5.0087,5.0087,4.995,4.9793,4.9793,4.9793,4.9647,4.8779,4.8491,4.8335,4.7538,4.7309,4.7309,4.7309,4.7309,4.7309,4.7309,4.7309,4.7309,4.7309,4.7309,4.7309,4.7309,4.7309,4.7309,4.7309,4.7309,4.7309,4.7309,4.7309,4.7309,4.7309,4.7309,4.7309,4.7309,4.7309,4.7309,4.7309,4.7309,4.7309,4.7309,4.7309,4.7309,4.7309,4.7309,4.7309,4.7309,4.7309,4.7309,4.7309,4.7309,4.7309,4.7309,4.7309,4.7309,4.4804,4.5684,4.709,4.8342,4.868,4.912,0.0,0.0,5.0236,5.1657,5.1928,5.2164,5.2976,5.3112,5.3179,5.3348,5.3382,5.3416,5.3484,5.3518,5.3484,5.3382,5.3382,5.3416,5.3484,5.3518,5.3518,5.3518,5.3518,5.3788,5.4448,5.4482,5.4769,5.5428,5.5462,5.5462,5.5462,5.5462,5.5462,5.5462,5.5462,5.5462,5.5462,5.5462,5.5376,5.527,5.527,5.4686,5.3757,5.4722,5.4543,5.3776,5.474,5.5129,5.4731,5.1567,4.9793,4.8973,4.8973,4.8397,4.7666,4.7666,4.7666,4.7624,4.7495,4.7473,4.743,4.7331,4.7309,4.7309,4.7309,4.7309,4.7309,4.7309,4.7309,4.7309,4.7309,4.7309,4.7309,4.7309,4.7309,4.7309,4.7309,4.7309,4.7309,4.7309,4.7309,4.7309,4.7309,4.7309,4.7309,4.7309,4.7309,4.7309,4.7309,4.7309,4.7309,4.7309,4.7309,4.7309,4.7309,4.7309,4.7309,4.7309,4.7309,4.7309,4.7309,4.7309,4.7309,4.7309,4.7309,4.7309,4.7646,4.7951,4.8342,0.0,4.9965,5.0423,5.1066,5.1285,5.1691,5.2773,5.301,5.3112,5.345,5.3518,5.3518,0.0,5.3518,5.3518,5.3518,5.3518,5.3653,5.4093,5.4126,5.4126,5.4126,5.4126,5.4329,5.4752,5.4786,5.4921,5.5243,5.5243,5.5361,5.5699,5.5699,5.5699,5.5699,5.5699,5.5699,5.5699,5.5699,5.5699,5.5699,5.5699,5.5699,5.5699,5.5699,5.5453,5.5046,5.5506,5.5435,5.5098,5.5506,5.5699,5.551,5.402,5.3206,5.2819,5.2819,5.2555,5.221,5.221,5.175,5.1084,5.0485,4.985,4.9209,4.8615,4.8468,4.8468,4.8468,4.8468,4.8468,4.8468,4.8468,4.8468,4.8468,4.8468,4.8468,4.8468,4.8468,4.8468,4.8468,4.8468,4.8468,4.8468,4.7788,4.7309,4.7309,4.7309,4.7309,4.7309,4.7309,4.7309,4.7309,4.7309,4.7309,4.7309,4.7309,4.7309,4.7309,4.7309,4.7309,4.7309,4.7309,4.7309,4.7309,4.7309,4.7309,4.7309,4.7309,4.7309,4.939,0.0,0.0,5.0473,5.1285,5.1844,5.1844,5.2266,5.2807,5.3382,5.3518,5.3518,5.3518,5.3518,5.3518,5.3518,5.3518,5.3585,5.3788,5.3788,5.4093,5.4803,5.4905,5.4972,5.5175,5.5006,5.5108,5.5665,5.5699,5.58,5.6003,5.6003,5.6105,5.6308,5.6325,5.6325,5.6325,5.6325,5.6325,5.6325,5.6325,5.6325,5.6325,5.6325,5.6325,5.6325,5.6325,5.6325,5.6325,5.6325,5.6325,5.6325,5.6325,5.6325,5.6325,5.6325,5.5844,5.5259,5.5259,5.5098,5.4847,5.4847,5.4283,5.3478,5.2756,5.195,5.1152,5.0423,4.9995,4.973,4.973,4.9516,4.9277,4.9277,4.9277,4.9277,4.9277,4.9277,4.9277,4.9277,4.9277,4.9277,4.9277,4.9277,4.9277,4.9277,4.8468,4.7848,4.7848,4.7698,4.7578,4.7578,4.7429,4.7309,4.7309,4.7309,4.7309,4.7309,4.7309,4.7309,4.7309,4.7309,4.7309,4.7309,4.7309,4.7309,4.7309,4.7309,4.7309,4.7309,4.7309,4.7309,0.0,0.0,5.0421,5.186,5.2841,5.345,5.345,5.345,5.3484,5.3484,5.3518,5.3518,5.3518,5.3518,5.3518,5.3518,5.3518,5.3754,5.4465,5.4583,5.4837,5.5564,5.5665,5.5936,0.0,5.6071,5.5665,5.5699,5.5699,5.6003,5.6731,5.6765,5.7103,5.7832,5.7832,5.7832,5.7832,5.7832,5.7832,5.7832,5.7832,5.7832,5.7832,5.7832,5.7832,5.7832,5.7832,5.7832,5.7832,5.7832,5.7832,5.7832,5.7832,5.7832,5.7832,5.7832,5.627,5.4138,5.4138,5.353,5.2676,5.2676,5.2657,5.2617,5.2629,5.2557,5.2549,5.2497,5.1704,5.0845,5.0845,5.0075,4.9277,4.9277,4.9277,4.9277,4.9277,4.9277,4.9277,4.9277,4.9277,4.9277,4.9277,4.9277,4.9277,4.9277,4.9269,4.9217,4.9217,4.8678,4.8289,4.8289,4.7698,4.7309,4.7309,4.7309,4.7309,4.7309,4.7309,4.7309,4.7309,4.7309,4.7309,4.7309,4.7309,4.7309,4.7309,4.7309,4.7309,4.7309,4.7309,4.7309,0.0,0.0,5.1792,5.2841,5.3315,5.3518,5.3518,5.3518,5.3518,5.3518,5.3078,5.2706,5.2706,5.2706,5.2875,5.3416,5.3923,5.4499,5.5243,5.5344,5.5615,5.6341,5.6427,0.0,0.0,0.0,0.0,5.7137,5.7171,5.7273,5.7509,5.7509,5.7645,5.79,5.79,5.79,5.79,5.79,5.79,5.79,5.79,5.79,5.79,5.79,5.79,5.79,5.79,5.79,5.79,5.79,5.79,5.79,5.79,5.79,5.79,5.79,5.7361,5.6615,5.6615,5.6412,5.6117,5.6117,5.5608,5.5012,5.5012,5.3955,5.2793,5.2793,5.1977,5.1099,5.1099,5.081,5.0571,5.0571,5.0571,5.0571,5.0571,5.0571,5.0571,5.0571,5.0571,5.0571,5.0571,5.0571,5.0571,5.0571,4.9845,4.9277,4.9277,4.9097,4.8947,4.8947,4.8768,4.8618,4.8618,4.8618,4.8618,4.8618,4.8618,4.8438,4.7967,4.7967,4.7758,4.7309,4.7309,4.7519,4.7967,4.7967,4.8199,4.8618,4.8618,4.8618,0.0,5.1961,5.2503,5.3315,5.3518,5.3518,5.3518,5.3518,5.3518,5.3518,5.2875,5.23,5.23,5.2536,5.2807,5.3044,5.3923,5.4871,5.5597,5.5699,5.6071,5.707,5.7171,5.7374,0.0,0.0,0.0,5.7866,5.79,5.79,5.79,5.79,5.8017,5.8287,5.8287,5.8423,5.866,5.8423,5.8152,5.79,5.79,5.79,5.79,5.79,5.79,5.79,5.79,5.79,5.79,5.79,5.8051,5.8287,5.8287,5.8457,5.8712,5.8712,5.8712,5.8592,5.8103,5.79,5.79,5.79,5.7391,5.6797,5.6797,5.583,5.4681,5.4681,5.3591,5.2418,5.2418,5.1819,5.1206,5.1206,5.1206,5.1206,5.1206,5.1206,5.1206,5.1206,5.1206,5.1206,5.1206,5.1206,5.1206,5.1206,5.0511,4.9995,4.9995,4.9763,4.9613,4.9613,4.9426,4.9277,4.9277,4.9277,4.9277,4.9277,4.9277,4.9097,4.8678,4.8648,4.8468,4.8027,4.7997,4.8229,4.8648,4.8648,4.8887,4.9277,4.9277,4.9277,5.1894,5.2334,5.2536,5.3315,5.3518,5.3518,5.3518,5.3518,5.3484,5.345,5.2773,5.2198,0.0,0.0,5.3179,5.2536,5.3721,5.4972,5.5699,5.58,5.6325,0.0,0.0,0.0,0.0,0.0,0.0,5.8001,0.0,5.7967,5.8035,5.8035,5.8321,5.9013,5.9047,5.9404,6.008,5.9404,5.8727,5.8035,5.8035,5.8035,5.8035,5.8035,5.8035,5.8035,5.8035,5.8035,5.8035,5.8035,5.8423,5.9047,5.9047,5.9471,6.0114,6.0114,6.0114,5.9911,5.8509,5.8035,5.8035,5.8035,5.8035,5.8035,5.8035,5.7965,5.7928,5.7928,5.6375,5.4706,5.4706,5.3104,5.1453,5.1413,5.1413,5.1389,5.1319,5.1295,5.1295,5.1295,5.1295,5.1295,5.1295,5.1265,5.1236,5.1236,5.1206,5.1206,5.1206,5.0637,5.0255,5.0255,4.9733,4.9396,4.9396,4.9396,4.9396,4.9396,4.9396,4.9366,4.9337,4.9337,4.9307,4.9277,4.9277,4.9307,4.9337,4.9337,4.9366,4.9396,4.9396,4.9396,5.2063,5.2739,5.3247,5.345,5.3518,5.3518,5.3518,5.3518,5.3348,5.2739,5.1555,5.0811,0.0,0.0,0.0,5.3754,5.5277,0.0,5.7239,5.734,0.0,5.7866,0.0,5.8118,5.8693,5.8727,0.0,0.0,5.9032,5.8964,5.9505,5.9539,5.9641,5.981,5.981,5.9911,6.0114,5.9911,5.9742,5.9539,5.9539,5.9539,5.9539,5.9539,5.9539,5.9539,5.9539,5.9539,5.9539,5.9539,5.9641,5.981,5.981,5.9945,6.0114,6.0114,6.0114,6.0047,5.9674,5.9539,5.9539,5.9539,5.9539,5.9539,5.9539,5.8959,5.8342,5.8342,5.7311,5.6264,5.6264,5.5833,5.5152,5.4236,5.4037,5.3759,5.2882,5.2665,5.2665,5.2665,5.2665,5.2665,5.2665,5.2276,5.1947,5.1947,5.1505,5.1206,5.1206,5.1056,5.0936,5.0936,5.0787,5.072,5.072,5.072,5.072,5.072,5.072,5.0488,4.9979,4.9979,4.9763,4.9307,4.9277,4.9516,4.9979,4.9979,5.0219,5.072,5.072,5.072,5.2638,5.3179,5.3518,5.3518,5.3518,5.3416,5.3044,5.2976,5.2672,5.1555,5.0405,0.0,5.0574,0.0,0.0,0.0,0.0,0.0,5.734,5.7408,5.7645,0.0,5.8389,0.0,5.9404,5.9471,5.981,0.0,5.9911,5.9674,6.008,6.0114,6.025,6.0622,6.0622,6.0622,6.0622,6.0622,6.0452,6.0114,6.0114,6.0114,6.0114,6.0114,6.0114,6.0114,0.0,6.0114,6.0114,6.0114,6.0317,6.0622,6.0622,6.0825,6.1095,6.1095,6.1095,6.1095,6.1095,6.1095,6.0994,6.0317,6.0114,6.0114,6.0114,5.9665,5.9184,5.9184,5.8411,5.7553,5.7553,5.6777,5.5843,5.5175,5.4607,5.4027,5.3344,5.3198,5.3198,5.3198,5.3198,5.3198,5.3198,5.2899,5.2636,5.2636,5.2306,5.2067,5.2067,5.1535,5.1206,5.1206,5.1206,5.1206,5.1206,5.1206,5.1206,5.1206,5.1206,5.1026,5.0667,5.0637,5.0458,5.0122,5.0122,5.0301,5.0637,5.0637,5.0847,5.1206,5.1206,5.1206,5.3315,5.3518,5.3518,5.3518,5.3518,5.3281,5.2469,5.2232,5.1725,5.0236,0.0,4.9086,4.983,5.115,5.2469,5.3484,0.0,5.6833,5.6934,5.7036,5.7577,5.8844,5.9081,5.9419,6.0182,6.025,6.0588,6.14,6.0791,6.0419,6.0419,6.0419,6.0723,6.1434,6.1467,6.1467,6.1467,6.1467,6.1095,6.0419,6.0419,6.0419,6.0419,6.0419,6.0419,6.0419,6.0419,0.0,6.0419,6.0419,6.0825,6.1467,6.1467,6.1839,6.24,6.24,6.24,6.24,6.24,6.24,6.2178,6.0825,6.0419,6.0419,6.0419,6.0419,6.0419,6.0419,5.9734,5.9025,5.9025,5.7495,5.5947,5.5789,5.4806,5.3899,5.373,5.359,5.3468,5.3468,5.3468,5.3468,5.3468,5.3408,5.3348,5.3348,5.3258,5.3198,5.3198,5.2127,5.1325,5.1325,5.1236,5.1206,5.1206,5.1206,5.1206,5.1206,5.1206,5.1206,5.1206,5.1206,5.1206,5.1206,5.1206,5.1206,5.1206,5.1206,5.1206,5.1206,5.1206,5.1206,5.345,5.3518,5.3518,5.3518,5.3518,5.3281,5.2469,5.1826,0.0,0.0,4.8597,4.8326,4.9052,5.0389,5.2046,5.4059,5.575,5.7002,5.7611,5.822,5.8709,0.0,0.0,0.0,0.0,0.0,0.0,0.0,0.0,6.1994,6.1994,6.1994,6.2062,6.2178,6.2212,6.2212,6.2212,6.2212,6.2144,6.1994,6.1994,6.1994,6.1994,6.1994,6.1994,6.1994,6.1994,0.0,6.1994,6.1994,6.2076,6.2212,6.2212,6.2299,6.24,6.24,6.24,6.24,6.24,6.24,6.2367,6.2096,6.1994,6.1994,6.1994,6.1994,6.1994,6.1994,6.1857,6.1739,6.1739,6.1428,6.0856,5.9853,5.8695,5.7577,5.6579,5.5554,5.485,5.485,5.485,5.485,5.485,5.4401,5.4042,5.4042,5.3533,5.3198,5.3198,5.2516,5.2037,5.2037,5.1528,5.1206,5.1206,5.1206,5.1206,5.1206,5.1206,5.1206,5.1206,5.1206,5.1206,5.1206,5.1206,5.1206,5.1206,5.1206,5.1206,5.1206,5.1206,5.1206,5.3518,5.3518,5.3518,5.3518,5.3518,5.3179,5.1995,0.0,0.0,0.0,4.7564,4.7564,4.8293,4.9627,5.1386,5.3653,5.5277,5.663,5.773,5.8524,0.0,6.0114,0.0,0.0,0.0,0.0,0.0,0.0,0.0,6.24,6.24,6.24,6.24,6.24,6.24,6.24,6.24,6.24,6.24,6.24,6.24,6.24,6.24,6.24,6.24,6.24,6.24,0.0,6.24,6.24,6.24,6.24,6.24,6.24,6.24,6.24,6.24,6.24,6.24,6.24,6.24,6.24,6.24,6.24,6.24,6.24,6.24,6.24,6.24,6.24,6.24,6.1917,6.1317,6.0745,5.9675,5.8474,5.7245,5.6541,5.5967,5.533,5.5179,5.5179,5.5179,5.494,5.473,5.473,5.4431,5.4246,5.4246,5.3653,5.3114,5.2755,5.2426,5.2247,5.2247,5.2247,5.2247,5.2247,5.2247,5.2247,5.2247,5.2247,5.2247,5.2247,5.2247,5.2247,5.2247,5.2247,5.2247,5.2247,5.2247,5.2247,5.345,5.3518,5.3518,5.3518,5.3518,5.3112,5.1539,5.0507,0.0,0.0,4.68,4.6989,4.7549,4.8984,5.0744,0.0,5.4245,5.58,5.7408,5.8457,5.9554,0.0,0.0,0.0,0.0,0.0,0.0,0.0,0.0,0.0,6.24,6.24,6.24,6.24,6.24,6.24,6.24,6.24,6.24,6.24,6.24,6.24,6.24,6.24,6.24,6.24,6.24,0.0,0.0,6.24,6.24,6.24,6.24,6.24,6.24,6.24,6.24,6.24,6.24,6.24,6.24,6.24,6.24,6.24,6.24,6.24,6.24,6.24,6.24,6.24,6.24,6.1696,6.0912,6.0649,5.9903,5.8857,5.7644,5.7174,5.6704,5.5769,5.5381,5.5179,5.5179,5.5179,5.5179,5.5179,5.5179,5.5179,5.5179,5.473,5.4221,5.3677,5.3378,5.3198,5.3198,5.3198,5.3198,5.3198,5.3198,5.3198,5.3198,5.3198,5.3198,5.3198,5.3198,5.3198,5.3198,5.3198,5.3198,5.3198,5.3198,5.3198,5.3315,5.3518,5.3518,5.3518,5.3518,5.3112,5.1539,0.0,0.0,4.7124,4.68,4.6834,4.6887,4.8661,5.0371,5.1269,5.2689,5.4465,5.6596,5.8118,5.9554,6.1129,0.0,0.0,0.0,0.0,0.0,0.0,0.0,0.0,6.24,6.24,6.24,6.24,6.24,6.24,6.24,6.24,6.24,6.24,6.24,6.24,6.24,6.24,6.24,6.24,6.24,0.0,0.0,6.24,6.24,6.24,6.24,6.24,6.24,6.24,6.24,6.24,6.24,6.24,6.24,6.24,6.24,6.24,6.24,6.24,6.24,6.24,6.24,6.24,6.24,6.2322,6.1971,6.087,6.0501,6.0085,5.8902,5.7761,5.6967,5.6848,5.5967,5.5179,5.5179,5.5179,5.5179,5.5179,5.5179,5.5179,5.5179,5.5149,5.5089,5.4999,5.3947,5.3198,5.3198,5.3198,5.3198,5.3198,5.3198,5.3198,5.3198,5.3198,5.3198,5.3198,5.3198,5.3198,5.3198,5.3198,5.3198,5.3198,5.3198,5.3198,5.3281,5.3518,5.3518,5.3518,5.3145,5.2367,5.0879,0.0,4.7921,4.6447,4.6481,4.68,4.68,4.824,4.9695,5.0405,5.1454,5.3061,5.5767,5.7408,5.9066,6.1061,6.1941,0.0,0.0,0.0,0.0,0.0,0.0,0.0,6.24,6.24,6.24,6.24,6.24,6.24,6.24,6.24,6.24,6.24,6.24,6.24,6.24,6.24,6.24,6.24,6.24,0.0,0.0,6.24,6.24,6.24,6.24,6.24,6.24,6.24,6.24,6.24,6.24,6.24,6.24,6.24,6.24,6.24,6.24,6.24,6.24,6.24,6.24,6.24,6.24,6.24,6.2282,6.1797,6.1676,6.114,5.9214,5.8428,5.7644,5.6207,5.5526,5.5179,5.5179,5.5179,5.5179,5.5179,5.5179,5.5179,5.5179,5.5179,5.5179,5.5179,5.4725,5.4426,5.4426,5.4426,5.4426,5.4426,5.4426,5.4426,5.4426,5.4426,5.4426,5.4426,5.4426,5.4426,5.4426,5.4426,5.4426,5.4426,5.4426,5.4426,5.2942,5.3315,5.3518,5.3518,5.2909,5.1894,0.0,0.0,4.7481,4.5993,4.6278,4.68,4.68,4.8003,4.9187,4.9695,5.0405,5.1844,5.4651,5.6325,5.8084,0.0,0.0,6.1806,0.0,0.0,0.0,0.0,0.0,0.0,6.24,6.24,6.24,6.24,6.24,6.24,6.24,6.24,6.24,6.24,6.24,6.24,6.24,6.24,6.24,6.24,6.24,0.0,0.0,6.24,6.24,6.24,6.24,6.24,6.24,6.24,6.24,6.24,6.24,6.24,6.24,6.24,6.24,6.24,6.24,6.24,6.24,6.24,6.24,6.24,6.24,6.24,6.24,6.24,6.213,6.1399,5.9697,5.8767,5.7761,5.606,5.5426,5.5179,5.5179,5.5179,5.5179,5.5179,5.5179,5.5179,5.5179,5.5179,5.5179,5.5179,5.5179,5.5179,5.5179,5.5179,5.5179,5.5179,5.5179,5.5179,5.5179,5.5179,5.5179,5.5179,5.5179,5.5179,5.5179,5.5179,5.5179,5.5179,5.5179,5.5179,5.2131,5.2909,5.3518,5.3518,5.2909,5.1894,0.0,0.0,4.7481,4.5993,4.6278,4.68,4.68,4.8003,4.9018,4.9018,4.9627,5.0913,5.3213,5.4786,5.6544,0.0,0.0,6.0452,6.1231,0.0,0.0,0.0,0.0,0.0,6.24,6.24,6.24,6.24,6.24,6.24,6.24,6.24,6.24,6.24,6.24,6.24,6.24,6.24,6.24,0.0,0.0,0.0,0.0,6.24,6.24,6.24,6.24,6.24,6.24,6.24,6.24,6.24,6.24,6.24,6.24,6.24,6.24,6.24,6.24,6.24,6.24,6.24,6.24,6.24,6.24,6.24,6.24,6.24,6.148,6.0607,6.0586,5.869,5.7015,5.6991,5.6011,5.5179,5.5179,5.5179,5.5179,5.5179,5.5179,5.5179,5.5179,5.5179,5.5179,5.5179,5.5179,5.5179,5.5179,5.5179,5.5179,5.5179,5.5179,5.5179,5.5179,5.5179,5.5179,5.5179,5.5179,5.5179,5.5179,5.5179,5.5179,5.5179,5.5179,5.5179,5.1336,5.1742,5.1911,5.1911,5.098,4.9796,4.88,0.0,4.6109,4.5142,4.5954,4.68,4.68,4.8003,4.9187,4.9661,4.9947,5.1064,0.0,0.0,0.0,5.9505,6.0892,6.1772,0.0,0.0,0.0,0.0,0.0,0.0,6.24,6.24,6.24,6.24,6.24,6.24,6.24,6.24,6.24,6.24,6.24,6.24,6.24,6.24,6.24,0.0,0.0,0.0,0.0,6.24,6.24,6.24,6.24,6.24,6.24,6.24,6.24,6.24,6.24,6.24,6.24,6.24,6.24,6.24,6.24,6.24,6.24,6.24,6.24,6.24,6.24,6.24,6.24,6.24,6.211,6.1378,5.9719,5.8767,5.7738,5.6085,5.5451,5.5179,5.5179,5.5179,5.5179,5.5179,5.5179,5.5179,5.5179,5.5179,5.5179,5.5179,5.5179,5.5179,5.5179,5.5179,5.5179,5.5179,5.5179,5.5179,5.5179,5.5179,5.5179,5.5179,5.5179,5.5179,5.5179,5.5179,5.5179,5.5179,5.5179,5.5179,0.0,5.0153,5.0356,5.0356,4.9476,0.0,0.0,4.6568,4.5568,4.5108,4.5988,4.6902,4.7158,4.8206,4.9154,4.9593,5.0135,5.1386,0.0,0.0,0.0,5.9844,0.0,0.0,0.0,0.0,0.0,0.0,0.0,0.0,6.24,6.24,6.24,6.24,6.24,6.24,6.24,6.24,6.24,6.24,6.24,6.24,6.24,6.24,6.24,0.0,0.0,0.0,0.0,6.24,6.24,6.24,6.24,6.24,6.24,6.24,6.24,6.24,6.24,6.24,6.24,6.24,6.24,6.24,6.24,6.24,6.24,6.24,6.24,6.24,6.24,6.24,6.24,6.24,6.205,6.1317,5.9784,5.9125,5.836,5.6855,5.6183,5.5893,5.5893,5.5501,5.5179,5.5179,5.5179,5.5179,5.5179,5.5179,5.5179,5.5179,5.5179,5.5179,5.5179,5.5179,5.5179,5.5179,5.5179,5.5179,5.5179,5.5179,5.5179,5.5179,5.5179,5.5179,5.5179,5.5179,5.5179,5.5179,5.5179,5.5179,0.0,0.0,0.0,0.0,0.0,0.0,0.0,4.6143,0.0,4.5703,4.6278,4.7022,4.7752,4.8529,4.9086,4.9086,5.0356,5.1911,0.0,5.5649,0.0,0.0,6.0892,0.0,6.1298,0.0,0.0,0.0,0.0,0.0,6.24,6.24,6.24,6.24,6.24,6.24,6.24,6.24,6.24,6.24,6.24,6.24,6.24,6.24,6.24,0.0,0.0,0.0,0.0,6.24,6.24,6.24,6.24,6.24,6.24,6.24,6.24,6.24,6.24,6.24,6.24,6.24,6.24,6.24,6.24,6.24,6.24,6.24,6.24,6.24,6.24,6.24,6.24,6.24,6.1521,6.0691,6.0607,5.9719,5.8902,5.8812,5.79,5.7134,5.7134,5.6134,5.533,5.533,5.5255,5.5179,5.5179,5.5179,5.5179,5.5179,5.5179,5.5179,5.5179,5.5179,5.5179,5.5179,5.5179,5.5179,5.5179,5.5179,5.5179,5.5179,5.5179,5.5179,5.5179,5.5179,5.5179,5.5179,5.5179,5.5179,0.0,0.0,0.0,0.0,0.0,0.0,0.0,4.5399,4.5041,4.5602,4.6278,4.7022,4.7752,4.8951,4.983,4.983,5.1589,5.3467,5.4955,0.0,0.0,6.096,6.167,6.1907,0.0,0.0,0.0,0.0,0.0,6.24,6.24,6.24,6.24,6.24,6.24,6.24,6.24,6.24,6.24,6.24,6.24,6.24,6.24,6.24,6.24,0.0,0.0,0.0,6.24,6.24,6.24,6.24,6.24,6.24,6.24,6.24,6.24,6.24,6.24,6.24,6.24,6.24,6.24,6.24,6.24,6.24,6.24,6.24,6.24,6.24,6.24,6.24,6.24,6.24,6.2169,6.1716,6.0807,6.0374,5.9892,5.8969,5.8564,5.8383,5.8383,5.7394,5.659,5.659,5.5794,5.5179,5.5179,5.5179,5.5179,5.5179,5.5179,5.5179,5.5179,5.5179,5.5179,5.5179,5.5179,5.5179,5.5179,5.5179,5.5179,5.5179,5.5179,5.5179,5.5179,5.5179,5.5179,5.5179,5.5179,5.5179,4.4615,4.5176,4.5785,4.5785,4.5481,4.5196,4.5196,4.5142,4.5297,4.6041,4.6786,4.7631,4.8714,4.983,5.0608,5.0608,5.3078,0.0,0.0,0.0,6.0892,6.1264,6.1637,6.1873,0.0,0.0,0.0,0.0,0.0,6.24,6.24,6.24,6.24,6.24,6.24,6.24,6.24,6.24,6.24,6.24,6.24,6.24,6.24,6.24,6.24,0.0,0.0,0.0,6.24,6.24,6.24,6.24,6.24,6.24,6.24,6.24,6.24,6.24,6.24,6.24,6.24,6.24,6.24,6.24,6.24,6.24,6.24,6.24,6.24,6.24,6.24,6.24,6.24,6.24,6.24,6.2243,6.1595,6.1419,6.1235,6.0565,5.9978,5.961,5.961,5.8632,5.7831,5.7831,5.7276,5.6855,5.6855,5.6855,5.6638,5.6085,5.6011,5.5794,5.5255,5.5179,5.5179,5.5179,5.5179,5.5179,5.5179,5.5179,5.5179,5.5179,5.5179,5.5179,5.5179,5.5179,5.5179,5.5179,5.5179,5.5179,4.4736,4.4838,4.4905,4.4804,4.477,4.477,4.477,4.5229,4.5906,4.665,4.7394,4.8394,4.9965,5.0777,0.0,0.0,0.0,0.0,5.9979,6.0385,6.0655,6.1231,6.14,0.0,0.0,0.0,0.0,0.0,0.0,6.24,6.24,6.24,6.24,6.24,6.24,6.24,6.24,6.24,6.24,6.24,6.24,6.24,6.24,6.24,6.24,6.24,0.0,0.0,6.24,6.24,6.24,6.24,6.24,6.24,6.24,6.24,6.24,6.24,6.24,6.24,6.24,6.24,6.24,6.24,6.24,6.24,6.24,6.24,6.24,6.24,6.24,6.24,6.24,6.24,6.24,6.24,6.24,6.24,6.24,6.24,6.1561,6.087,6.087,5.987,5.9081,5.9081,5.8925,5.879,5.879,5.879,5.8405,5.7363,5.7269,5.6776,5.5576,5.5476,5.5406,5.5204,5.5179,5.5179,5.5179,5.5179,5.5179,5.5179,5.5179,5.5179,5.5179,5.5179,5.5179,5.5179,5.5179,5.5179,4.5365,4.5974,4.6327,4.5703,4.5534,4.5534,4.5534,4.5635,4.5906,4.665,4.7394,4.8529,5.0626,5.1133,5.1641,0.0,0.0,5.8524,0.0,0.0,6.1839,6.1366,0.0,6.2009,0.0,0.0,0.0,0.0,0.0,6.24,6.24,6.24,6.24,6.24,6.24,6.24,6.24,6.24,6.24,6.24,6.24,6.24,6.24,6.24,6.24,6.24,0.0,6.24,6.24,6.24,6.24,6.24,6.24,6.24,6.24,6.24,6.24,6.24,6.24,6.24,6.24,6.24,6.24,6.24,6.24,6.24,6.24,6.24,6.24,6.24,6.24,6.24,6.24,6.24,6.24,6.24,6.24,6.24,6.24,6.24,6.2263,6.211,6.211,6.1119,6.0332,6.0332,5.9456,5.879,5.879,5.879,5.8722,5.8542,5.8519,5.8039,5.6824,5.6704,5.6305,5.5255,5.5179,5.5179,5.5179,5.5179,5.5179,5.5179,5.5179,5.5179,5.5179,5.5179,5.5179,5.5179,5.5179,5.5179,4.5007,4.592,4.6819,4.6872,4.7177,4.7597,4.8003,4.8409,4.8766,4.912,0.0,0.0,0.0,0.0,5.3923,5.663,0.0,5.9167,6.1028,6.1231,6.1197,0.0,0.0,6.1839,0.0,0.0,0.0,0.0,0.0,0.0,6.24,6.24,6.24,6.24,6.24,6.24,6.24,6.24,6.24,6.24,6.24,6.24,6.24,6.24,6.24,6.24,0.0,6.24,6.24,6.24,6.24,6.24,6.24,6.24,6.24,6.24,6.24,6.24,6.24,6.24,6.24,6.24,6.24,6.24,6.24,6.24,6.24,6.24,6.24,6.24,6.24,6.24,6.24,6.24,6.24,6.24,6.24,6.24,6.24,6.24,6.24,6.24,6.24,6.1951,6.1595,6.1595,6.1078,6.0766,6.0766,6.0766,6.0501,5.9827,5.9762,5.928,5.8085,5.7969,5.7181,5.533,5.5179,5.5179,5.5179,5.5179,5.5179,5.5179,5.5179,5.5179,5.5179,5.5179,5.5179,5.5179,5.5179,5.5179,4.4804,4.592,4.7225,4.7954,4.8462,4.9052,5.0101,5.0676,5.1032,0.0,0.0,0.0,0.0,5.4634,0.0,5.937,5.9674,5.9994,6.1366,6.1028,0.0,0.0,0.0,0.0,0.0,0.0,0.0,0.0,0.0,0.0,6.24,6.24,6.24,6.24,6.24,6.24,6.24,6.24,6.24,6.24,6.24,6.24,6.24,6.24,6.24,6.24,6.24,6.24,6.24,6.24,6.24,6.24,6.24,6.24,6.24,6.24,6.24,6.24,6.24,6.24,6.24,6.24,6.24,6.24,6.24,6.24,6.24,6.24,6.24,6.24,6.24,6.24,6.24,6.24,6.24,6.24,6.24,6.24,6.24,6.24,6.24,6.24,6.24,6.24,6.24,6.24,6.24,6.24,6.24,6.24,6.205,6.1098,6.1016,6.0522,5.9324,5.8969,5.7877,5.5745,5.5355,5.533,5.5626,5.5355,5.5179,5.5179,5.5179,5.5179,5.5179,5.5179,5.5179,5.5179,5.5179,5.5179,4.5432,4.6703,4.7988,4.8732,4.8462,4.8529,5.0626,5.0642,5.0574,5.1928,0.0,0.0,0.0,5.6224,5.7949,5.8912,6.025,6.14,6.2212,0.0,0.0,0.0,0.0,0.0,0.0,0.0,0.0,0.0,0.0,0.0,6.24,6.24,6.24,6.24,6.24,6.24,6.24,6.24,6.24,6.24,6.24,6.24,6.24,6.24,6.24,6.24,6.24,6.24,6.24,6.24,6.24,6.24,6.24,6.24,6.24,6.24,6.24,6.24,6.24,6.24,6.24,6.24,6.24,6.24,6.24,6.24,6.24,6.24,6.24,6.24,6.24,6.24,6.24,6.24,6.24,6.24,6.24,6.24,6.24,6.24,6.24,6.24,6.24,6.24,6.24,6.24,6.24,6.24,6.24,6.24,6.2361,6.2282,6.2282,6.1777,6.0565,5.9434,5.8245,5.6967,5.5819,5.5695,5.6824,5.5794,5.5179,5.5179,5.5179,5.5179,5.5179,5.5179,5.5179,5.5179,5.5179,5.5179,4.55,4.6771,4.809,4.8815,4.9476,5.0558,5.2807,5.345,5.3737,5.4312,5.504,0.0,0.0,0.0,5.9945,5.9708,6.0994,6.2076,6.2367,6.24,0.0,0.0,0.0,0.0,0.0,0.0,0.0,0.0,0.0,0.0,6.24,6.24,6.24,6.24,6.24,6.24,6.24,6.24,6.24,6.24,6.24,6.24,6.24,6.24,6.24,6.24,6.24,6.24,6.24,6.24,6.24,6.24,6.24,6.24,6.24,6.24,6.24,6.24,6.24,6.24,6.24,6.24,6.24,6.24,6.24,6.24,6.24,6.24,6.24,6.24,6.24,6.24,6.24,6.24,6.24,6.24,6.24,6.24,6.24,6.24,6.24,6.24,6.24,6.24,6.24,6.24,6.24,6.24,6.24,6.24,6.2584,6.3057,6.3497,6.3404,6.2474,6.132,6.0195,5.928,5.7386,5.6207,5.5893,5.5426,5.5179,5.5179,5.5179,5.5179,5.5179,5.5179,5.5179,5.5179,5.5179,5.5179,4.5906,4.7109,4.8462,4.9442,5.0626,5.2148,5.4431,5.5175,5.5547,5.624,5.6799,5.7205,5.7442,0.0,0.0,0.0,6.1569,6.24,6.24,6.24,0.0,0.0,0.0,0.0,0.0,0.0,0.0,0.0,0.0,0.0,0.0,6.24,6.24,6.24,6.24,6.24,6.24,6.24,6.24,6.24,6.24,6.24,6.24,6.24,6.24,6.24,6.24,6.24,6.24,6.24,6.24,6.24,6.24,6.24,6.24,6.24,6.24,6.24,6.24,6.24,6.24,6.24,6.24,6.24,6.24,6.24,6.24,6.24,6.24,6.24,6.24,6.24,6.24,6.24,6.24,6.24,6.24,6.24,6.24,6.24,6.24,6.24,6.24,6.24,6.24,6.24,6.24,6.2502,6.2719,6.2753,6.3024,6.3768,6.4309,6.441,6.3903,6.3095,6.2264,6.1353,5.916,5.728,5.5819,5.5406,5.5179,5.5179,5.5179,5.5179,5.5179,5.5179,5.5179,5.5179,5.5179,5.5179,4.68,4.7868,4.9357,5.0829,5.1776,5.2909,5.5192,5.5141,5.526,5.746,5.7934,5.8118,5.8878,0.0,0.0,6.1163,6.1907,6.24,6.24,6.24,0.0,0.0,0.0,0.0,0.0,0.0,0.0,0.0,0.0,0.0,0.0,6.24,6.24,6.24,6.24,6.24,6.24,6.24,6.24,6.24,6.24,6.24,6.24,6.24,6.24,6.24,6.24,6.24,6.24,6.24,6.24,6.24,6.24,6.24,6.24,6.24,6.24,6.24,6.24,6.24,6.24,6.24,6.24,6.24,6.24,6.24,6.24,6.24,6.24,6.24,6.24,6.24,6.24,6.24,6.24,6.24,6.24,6.24,6.24,6.24,6.24,6.24,6.24,6.24,6.24,6.24,6.24,6.2685,6.3409,6.3511,6.3781,6.4546,6.4613,6.4613,6.4613,6.4613,6.4094,6.2891,6.0969,5.9035,5.7094,5.5844,5.5179,5.5179,5.5179,5.5179,5.5179,5.5179,5.5179,5.5179,5.5179,5.5179,4.6665,4.8255,4.9999,5.0964,5.257,5.4228,5.5428,5.5953,0.0,0.0,5.8693,5.8896,5.9641,0.0,0.0,0.0,0.0,0.0,6.24,6.24,0.0,0.0,0.0,0.0,0.0,0.0,0.0,0.0,0.0,0.0,0.0,6.24,6.24,6.24,6.24,6.24,6.24,6.24,6.24,6.24,6.24,6.24,6.24,6.24,6.24,6.24,6.24,6.24,6.24,6.24,6.24,6.24,6.24,6.24,6.24,6.24,6.24,6.24,6.24,6.24,6.24,6.24,6.24,6.24,6.24,6.24,6.24,6.24,6.24,6.24,6.24,6.24,6.24,6.24,6.24,6.24,6.24,6.24,6.24,6.24,6.24,6.24,6.24,6.24,6.24,6.24,6.2854,6.3429,6.4174,6.4715,6.5121,6.5358,6.5831,6.5933,6.5425,6.5358,6.4631,6.2924,6.2267,6.0686,5.7904,5.6111,5.5179,5.5179,5.5179,5.5179,5.5179,5.5179,5.5179,5.5179,5.5179,5.5179,4.8206,4.9526,5.0947,5.2588,5.3788,5.4938,5.6292,0.0,0.0,0.0,5.9216,5.9674,6.0452,6.1569,0.0,6.1806,0.0,0.0,0.0,0.0,0.0,0.0,0.0,0.0,0.0,0.0,0.0,0.0,0.0,0.0,0.0,6.24,6.24,6.24,6.24,6.24,6.24,6.24,6.24,6.24,6.24,6.24,6.24,6.24,6.24,6.24,6.24,6.24,6.24,6.24,6.24,6.24,6.24,6.24,6.24,6.24,6.24,6.24,6.24,6.24,6.24,6.24,6.24,6.24,6.24,6.24,6.24,6.24,6.24,6.24,6.24,6.24,6.24,6.24,6.24,6.24,6.24,6.24,6.24,6.24,6.24,6.24,6.24,6.24,6.2502,6.2787,6.37,6.4546,6.4986,6.5662,6.6136,6.6136,6.6542,6.6622,6.617,6.6136,6.5628,6.4467,6.3659,6.2148,5.9735,5.7783,5.639,5.5623,5.5623,5.5474,5.5179,5.5179,5.5179,5.5179,5.5179,5.5179,5.0457,5.1201,5.208,5.4887,5.5243,5.5429,5.746,5.79,5.8137,5.8912,0.0,6.0351,6.1231,6.1941,6.24,6.24,0.0,0.0,0.0,0.0,0.0,0.0,0.0,0.0,0.0,0.0,0.0,0.0,0.0,0.0,0.0,6.24,6.24,6.24,6.24,6.24,6.24,6.24,6.24,6.24,6.24,6.24,6.24,6.24,6.24,6.24,6.24,6.24,6.24,6.24,6.24,6.24,6.24,6.24,6.24,6.24,6.24,6.24,6.24,6.24,6.24,6.24,6.24,6.24,6.24,6.24,6.24,6.24,6.24,6.24,6.24,6.24,6.24,6.24,6.24,6.24,6.24,6.24,6.24,6.24,6.24,6.24,6.24,6.24,6.2651,6.3477,6.4783,6.5696,6.5764,6.6406,6.6791,6.6791,6.6791,6.6791,6.6791,6.6791,6.6791,6.6791,6.5155,6.359,6.2327,6.0212,5.8187,5.6308,5.6282,5.5953,5.5269,5.5269,5.5239,5.5179,5.5179,5.5179,4.9172,5.1201,5.3315,5.4532,5.6021,5.7324,5.7798,5.79,5.8272,5.9607,5.9979,6.052,6.1907,6.2299,6.24,6.24,0.0,0.0,0.0,0.0,0.0,0.0,0.0,0.0,0.0,0.0,0.0,0.0,0.0,0.0,6.24,6.24,6.24,6.24,6.24,6.24,6.24,6.24,6.24,0.0,6.24,6.24,6.24,6.24,6.24,6.24,6.24,6.24,6.24,6.24,6.24,6.24,6.24,6.24,6.24,6.24,6.24,6.24,6.24,6.24,6.24,6.24,6.24,6.24,6.24,6.24,6.24,6.24,6.24,6.24,6.24,6.24,6.24,6.24,6.24,6.24,6.24,6.24,6.24,6.24,6.24,6.24,6.24,6.24,6.2854,6.4174,6.5121,6.5899,6.6508,6.669,6.6791,6.6791,6.6791,6.6791,6.6791,6.6791,6.6791,6.6791,6.6411,6.5621,6.4344,6.0947,5.8402,5.6937,5.6885,5.6611,5.5983,5.5983,5.5713,5.5179,5.5179,5.5179,4.9578,5.1438,5.3382,5.5209,5.6799,5.79,5.79,5.79,5.8321,5.981,6.0114,6.0554,6.213,6.24,6.24,6.24,0.0,0.0,0.0,0.0,0.0,0.0,0.0,0.0,0.0,0.0,0.0,0.0,0.0,6.24,6.24,6.24,6.24,6.24,6.24,6.24,6.24,6.24,6.24,6.24,6.24,6.24,6.24,6.24,6.24,6.24,6.24,6.24,6.24,6.24,6.24,6.24,6.24,6.24,6.24,6.24,6.24,6.24,6.24,6.24,6.24,6.24,6.24,6.24,6.24,6.24,6.24,6.24,6.24,6.24,6.24,6.24,6.24,6.24,6.24,6.24,6.24,6.24,6.24,6.24,6.24,6.24,6.24,6.299,6.37,6.4478,6.5527,6.6373,6.6757,6.6791,6.6791,6.6791,6.6791,6.6791,6.6791,6.6791,6.6791,6.6791,6.6791,6.6235,6.4936,6.2363,6.0185,5.8578,5.791,5.7274,5.6641,5.6641,5.6312,5.5683,5.5683,5.5534,4.9916,5.1539,5.3247,5.6224,5.7442,0.0,5.79,5.79,5.8321,5.981,6.0114,6.0554,6.213,6.24,6.24,6.24,0.0,0.0,0.0,0.0,0.0,0.0,0.0,0.0,0.0,0.0,0.0,0.0,0.0,6.24,6.24,6.24,6.24,6.24,6.24,6.24,6.24,6.24,6.24,6.24,6.24,6.24,6.24,6.24,6.24,6.24,6.24,6.24,6.24,6.24,6.24,6.24,6.24,6.24,6.24,6.24,6.24,6.24,6.24,6.24,6.24,6.24,6.24,6.24,6.24,6.24,6.24,6.24,6.24,6.24,6.24,6.24,6.24,6.24,6.24,6.24,6.24,6.24,6.24,6.24,6.24,6.24,6.24,6.3599,6.4613,6.4613,6.5865,6.6791,6.6791,6.6791,6.6791,6.6791,6.6791,6.6791,6.6791,6.6791,6.6791,6.6791,6.6791,6.632,6.526,6.4021,6.2476,6.064,5.9075,5.7935,5.7274,5.7274,5.6944,5.6372,5.6372,5.6072,4.8056,5.0795,5.4059,5.7002,5.7832,5.79,0.0,0.0,5.8321,0.0,6.0114,6.0554,6.213,6.24,6.24,0.0,0.0,0.0,0.0,0.0,0.0,0.0,0.0,0.0,0.0,0.0,0.0,0.0,6.24,6.24,6.24,6.24,6.24,6.24,6.24,6.24,6.24,6.24,6.24,6.24,6.24,6.24,6.24,6.24,6.24,6.24,6.24,6.24,6.24,6.24,6.24,6.24,6.24,6.24,6.24,6.24,6.24,6.24,6.24,6.24,6.24,6.24,6.24,6.24,6.24,6.24,6.24,6.24,6.24,6.24,6.24,6.24,6.24,6.24,6.24,6.24,6.24,6.24,6.24,6.24,6.24,6.24,6.24,6.3599,6.4613,6.4613,6.5865,6.6791,6.6791,6.6791,6.6791,6.6791,6.6791,6.6791,6.6791,6.6791,6.6791,6.6791,6.6791,6.6728,6.6546,6.5304,6.4003,6.2627,6.021,5.865,5.7965,5.7965,5.7633,5.6974,5.6974,5.6915,4.9578,5.1894,5.4194,5.7155,5.79,5.79,5.79,5.79,5.8321,5.981,6.0114,6.0554,6.213,6.24,6.24,0.0,0.0,0.0,0.0,0.0,0.0,0.0,0.0,0.0,0.0,0.0,0.0,0.0,6.24,6.24,6.24,6.24,6.24,6.24,6.24,6.24,6.24,6.24,6.24,6.24,6.24,6.24,6.24,6.24,6.24,6.24,6.24,6.24,6.24,6.24,6.24,6.24,6.24,6.24,6.24,6.24,6.24,6.24,6.24,6.24,6.24,6.24,6.24,6.24,6.24,6.24,6.24,6.24,6.24,6.24,6.24,6.24,6.24,6.24,6.24,6.24,6.24,6.24,6.24,6.24,6.24,6.2516,6.2956,6.3903,6.4749,6.5155,6.6136,6.6791,6.6791,6.6791,6.6791,6.6791,6.6791,6.6791,6.6791,6.6791,6.6791,6.6791,6.6791,6.6791,6.6791,6.5581,6.4322,6.3028,6.1122,5.966,5.8653,5.8653,5.8321,5.7663,5.7663,5.7453,5.0371,5.2029,5.3382,5.6562,5.7476,5.7663,0.0,0.0,5.8321,0.0,6.0114,6.0554,6.213,6.24,6.24,0.0,0.0,0.0,0.0,0.0,0.0,0.0,0.0,0.0,0.0,0.0,0.0,0.0,6.24,6.24,6.24,6.24,6.24,6.24,6.24,6.24,6.24,6.24,6.24,6.24,6.24,6.24,6.24,6.24,6.24,6.24,6.24,6.24,6.24,6.24,6.24,6.24,6.24,6.24,6.24,6.24,6.24,6.24,6.24,6.24,6.24,6.24,6.24,6.24,6.24,6.24,6.24,6.24,6.24,6.24,6.24,6.24,6.24,6.24,6.24,6.24,6.24,6.24,6.24,6.24,6.255,6.2854,6.3409,6.4275,6.5053,6.5615,6.6339,6.6791,6.6791,6.6791,6.6791,6.6791,6.6791,6.6791,6.6791,6.6791,6.6791,6.6791,6.6791,6.6791,6.6791,6.5581,6.4322,6.3028,6.1671,6.038,5.9099,5.9099,5.886,5.8354,5.8354,5.8112,4.8342,4.9695,5.115,5.4887,5.6341,5.7036,0.0,0.0,5.8321,5.981,6.0114,6.0554,6.213,6.24,6.24,0.0,0.0,0.0,0.0,0.0,0.0,0.0,0.0,0.0,0.0,0.0,0.0,0.0,6.24,6.24,6.24,6.24,6.24,6.24,6.24,6.24,6.24,6.24,6.24,6.24,6.24,6.24,6.24,6.24,6.24,6.24,6.24,6.24,6.24,6.24,6.24,6.24,6.24,6.24,6.24,6.24,6.24,6.24,6.24,6.24,6.24,6.24,6.24,6.24,6.24,6.24,6.24,6.24,6.24,6.24,6.24,6.24,6.24,6.24,6.24,6.24,6.24,6.24,6.24,6.24,6.2956,6.3443,6.3477,6.4681,6.5683,6.5683,6.6339,6.6791,6.6791,6.6791,6.6791,6.6791,6.6791,6.6791,6.6791,6.6791,6.6791,6.6791,6.6791,6.6791,6.6791,6.5581,6.4322,6.3028,6.1671,6.038,5.9099,5.9099,5.9099,5.9069,5.9069,5.9039,4.8206,4.9187,5.0304,5.4059,5.5547,5.6274,5.7036,5.7561,5.8186,5.9201,5.9776,6.0419,6.1501,6.2076,6.24,0.0,0.0,0.0,0.0,0.0,0.0,0.0,0.0,0.0,0.0,0.0,0.0,0.0,0.0,6.24,6.24,6.24,6.24,6.24,6.24,6.24,6.24,6.24,6.24,6.24,6.24,6.24,6.24,6.24,6.24,6.24,6.24,6.24,6.24,6.24,6.24,6.24,6.24,6.24,6.24,6.24,6.24,6.24,6.24,6.24,6.24,6.24,6.24,6.24,6.24,6.2719,6.3125,6.3125,6.3463,6.3802,6.3802,6.3802,6.3802,6.3802,6.3802,6.3802,6.3802,6.3429,6.326,6.37,6.4038,6.4377,6.4816,6.5358,6.5886,6.6339,6.6643,6.6791,6.6791,6.6791,6.6791,6.6791,6.6791,6.6791,6.6791,6.6791,6.6791,6.6791,6.6791,6.6791,6.6791,6.6342,6.5514,6.4253,6.2948,6.1224,5.9099,5.9099,5.9099,5.9099,5.9099,5.9099,4.7597,4.8443,4.9476,5.2942,5.4397,5.5293,5.6528,5.7171,5.7814,5.881,5.9607,6.0351,6.1163,6.1907,6.24,0.0,0.0,0.0,0.0,0.0,0.0,0.0,0.0,0.0,0.0,0.0,0.0,0.0,0.0,0.0,6.24,6.24,6.24,6.24,6.24,6.24,6.24,6.24,6.24,6.24,6.24,6.24,6.24,6.24,6.24,6.24,6.24,6.24,6.24,6.24,6.24,6.24,6.24,6.24,6.24,6.24,6.24,6.24,6.24,6.24,6.24,6.24,6.255,6.2753,6.2753,6.3294,6.3849,6.3849,6.4241,6.4613,6.4613,6.4613,6.4613,6.4613,6.4613,6.4681,6.4918,6.441,6.3984,6.4512,6.4783,6.5121,6.5615,6.5899,6.6237,6.6745,6.6791,6.6791,6.6791,6.6791,6.6791,6.6791,6.6791,6.6791,6.6791,6.6791,6.6791,6.6791,6.6791,6.6791,6.6791,6.5964,6.5126,6.4276,6.2561,6.082,5.9099,5.9099,5.9099,5.9099,5.9099,5.9099,0.0,0.0,0.0,0.0,0.0,0.0,5.619,0.0,5.7171,5.8641,5.9539,6.0317,6.1095,6.1839,6.2367,0.0,0.0,0.0,0.0,0.0,0.0,0.0,0.0,0.0,0.0,0.0,0.0,0.0,6.24,6.24,6.24,6.24,6.24,6.24,6.24,6.24,6.24,6.24,6.24,6.24,6.24,6.24,6.24,6.24,6.24,6.24,6.24,6.24,6.24,6.24,6.24,6.24,6.24,6.24,6.24,6.24,6.24,6.24,6.24,6.24,6.24,6.2434,6.2922,6.3511,6.3511,6.4072,6.4647,6.4647,6.4647,6.4647,6.4647,6.4647,6.4647,6.4647,6.4647,6.485,6.5561,6.5155,6.4647,6.4647,6.5222,6.5751,6.5751,6.6339,6.6791,6.6791,6.6791,6.6791,6.6791,6.6791,6.6791,6.6791,6.6791,6.6791,6.6791,6.6791,6.6791,6.6791,6.6791,6.6791,6.6791,6.4414,6.31,6.3076,6.0515,5.9207,5.9153,5.9126,5.9099,5.9099,5.9099,5.9099,4.6394,0.0,0.0,0.0,0.0,0.0,0.0,0.0,5.6274,5.7205,5.8423,5.9351,5.9588,6.0723,6.1603,0.0,0.0,0.0,0.0,0.0,0.0,0.0,0.0,0.0,0.0,0.0,0.0,0.0,6.24,6.24,6.24,6.24,6.24,6.24,6.24,6.24,6.24,6.24,6.24,6.24,6.24,6.24,6.24,6.24,6.24,6.24,6.24,6.24,6.24,6.24,6.24,6.24,6.24,6.24,6.24,6.24,6.24,6.24,6.24,6.24,6.2482,6.3024,6.3308,6.3579,6.412,6.4816,6.5412,6.5412,6.5797,6.6183,6.6183,6.6183,6.6183,6.6183,6.6183,6.6271,6.644,6.6339,6.6183,6.6183,6.6373,6.6508,6.6508,6.6677,6.6791,6.6791,6.6791,6.6791,6.6791,6.6791,6.6791,6.6791,6.6791,6.6791,6.6791,6.6791,6.6791,6.6791,6.6791,6.6791,6.6791,6.6127,6.5337,6.4391,6.2755,6.1451,6.0484,5.9549,5.9099,5.9099,5.9099,5.9099,0.0,0.0,0.0,0.0,0.0,0.0,5.3484,5.4634,5.5615,0.0,5.8186,5.9013,5.9013,6.0013,6.0926,0.0,0.0,0.0,0.0,0.0,0.0,0.0,0.0,0.0,0.0,6.24,6.24,6.24,6.24,6.24,6.24,6.24,6.24,6.24,6.24,6.24,6.24,6.24,6.24,6.24,6.24,6.24,6.24,6.24,6.24,6.24,6.24,6.24,6.24,6.24,6.24,6.24,6.24,6.24,6.24,6.24,6.24,6.2415,6.2753,6.2854,6.299,6.3734,6.4174,6.4512,6.4918,6.5561,6.617,6.617,6.6474,6.6791,6.6791,6.6791,6.6791,6.6791,6.6791,6.6791,6.6791,6.6791,6.6791,6.6791,6.6791,6.6791,6.6791,6.6791,6.6791,6.6791,6.6791,6.6791,6.6791,6.6791,6.6791,6.6791,6.6791,6.6791,6.6791,6.6791,6.6791,6.6791,6.6791,6.6791,6.6791,6.6278,6.5426,6.4137,6.2828,6.1496,6.0228,5.9473,5.9099,5.9099,5.9099,5.9099,0.0,0.0,0.0,0.0,0.0,0.0,5.3467,5.4228,5.4922,0.0,5.8051,5.8641,5.8641,5.9235,5.9979,0.0,0.0,0.0,0.0,0.0,0.0,0.0,0.0,0.0,6.24,6.24,6.24,6.24,6.24,6.24,6.24,6.24,6.24,6.24,6.24,6.24,6.24,6.24,6.24,6.24,6.24,6.24,6.24,6.24,6.24,6.24,6.24,6.24,6.24,6.24,6.24,6.24,6.24,6.24,6.24,6.24,6.2468,6.2618,6.3274,6.3545,6.3748,6.4478,6.5155,6.5717,6.5818,6.6271,6.6791,6.6791,6.6791,6.6791,6.6791,6.6791,6.6791,6.6791,6.6791,6.6791,6.6791,6.6791,6.6791,6.6791,6.6791,6.6791,6.6791,6.6791,6.6791,6.6791,6.6791,6.6791,6.6791,6.6791,6.6791,6.6791,6.6791,6.6791,6.6791,6.6791,6.6791,6.6791,6.6791,6.6791,6.6791,6.569,6.4437,6.3028,6.1546,6.0255,5.9099,5.9099,5.9099,5.9099,5.9099,5.9099,0.0,0.0,0.0,0.0,0.0,0.0,5.071,5.1894,5.3044,0.0,5.5428,5.6341,5.6341,5.6968,5.7509,0.0,0.0,0.0,0.0,0.0,0.0,0.0,0.0,0.0,6.24,6.24,6.24,6.24,6.24,6.24,6.24,6.24,6.24,6.24,6.24,6.24,6.24,6.24,6.24,6.24,6.24,6.24,6.24,6.24,6.24,6.24,6.24,6.24,6.24,6.24,6.24,6.24,6.24,6.24,6.24,6.24,6.2787,6.3308,6.3443,6.3903,6.4512,6.5256,6.5561,6.5818,6.6406,6.669,6.6791,6.6791,6.6791,6.6791,6.6791,6.6791,6.6791,6.6791,6.6791,6.6791,6.6791,6.6791,6.6791,6.6791,6.6791,6.6791,6.6791,6.6791,6.6791,6.6791,6.6791,6.6791,6.6791,6.6791,6.6791,6.6791,6.6791,6.6791,6.6791,6.6791,6.6791,6.6791,6.6791,6.6791,6.6791,6.6546,6.536,6.302,6.0696,5.9339,5.9099,5.9099,5.9099,5.9099,5.9099,5.9099,0.0,0.0,0.0,4.8917,0.0,0.0,0.0,5.1217,5.208,5.3281,5.4076,5.4583,5.4583,0.0,5.5818,0.0,0.0,0.0,0.0,0.0,0.0,0.0,0.0,0.0,6.24,6.24,6.24,6.24,6.24,6.24,6.24,6.24,6.24,6.24,6.24,6.24,6.24,6.24,6.24,6.24,6.24,6.24,6.24,6.24,6.24,6.24,6.24,6.24,6.24,6.24,6.24,6.24,6.24,6.24,6.2415,6.2821,6.3173,6.3612,6.4343,6.485,6.5256,6.6,6.6237,6.6305,6.669,6.6791,6.6791,6.6791,6.6791,6.6791,6.6791,6.6791,6.6791,6.6791,6.6791,6.6791,6.6791,6.6791,6.6791,6.6791,6.6791,6.6791,6.6791,6.6791,6.6791,6.6791,6.6791,6.6791,6.6791,6.6791,6.6791,6.6791,6.6791,6.6791,6.6791,6.6791,6.6791,6.6791,6.6791,6.6791,6.6791,6.6791,6.5581,6.3052,6.0411,5.9099,5.9099,5.9099,5.9099,5.9099,5.9099,5.9099,0.0,0.0,0.0,0.0,0.0,4.9492,0.0,0.0,0.0,0.0,0.0,0.0,0.0,0.0,0.0,0.0,0.0,0.0,0.0,0.0,0.0,0.0,0.0,0.0,6.2197,6.2197,6.2245,6.24,6.2245,6.2245,6.2381,6.24,6.24,6.24,6.24,6.24,6.24,6.24,6.24,6.24,6.24,6.24,6.24,6.24,6.24,6.24,6.24,6.24,6.24,6.24,6.24,6.24,6.24,6.2482,6.2685,6.3274,6.368,6.4106,6.5311,6.5764,6.6,6.6609,6.6791,6.6791,6.6791,6.6791,6.6791,6.6791,6.6791,6.6791,6.6791,6.6791,6.6791,6.6791,6.6791,6.6791,6.6791,6.6791,6.6791,6.6791,6.6791,6.6791,6.6791,6.6791,6.6791,6.6791,6.6791,6.6791,6.6791,6.6791,6.6791,6.6791,6.6791,6.6791,6.6791,6.6791,6.6791,6.6791,6.6791,6.6791,6.6791,6.632,6.4992,6.2658,6.0281,5.9099,5.9099,5.9099,5.9099,5.9099,5.9099,5.9099,0.0,0.0,0.0,0.0,4.9492,0.0,0.0,0.0,0.0,0.0,0.0,0.0,0.0,0.0,0.0,0.0,0.0,0.0,0.0,0.0,0.0,0.0,0.0,0.0,0.0,6.1434,6.1704,6.2367,6.1772,6.1704,6.2367,6.24,6.24,6.24,6.24,6.24,6.24,6.24,6.24,6.24,6.24,6.24,6.24,6.24,6.24,6.24,6.24,6.24,6.24,6.24,6.24,6.24,6.24,6.2787,6.3376,6.3477,6.4343,6.5459,6.5649,6.6136,6.669,6.6757,6.6791,6.6791,6.6791,6.6791,6.6791,6.6791,6.6791,6.6791,6.6791,6.6791,6.6791,6.6791,6.6791,6.6791,6.6791,6.6791,6.6791,6.6791,6.6791,6.6791,6.6791,6.6791,6.6791,6.6791,6.6791,6.6791,6.6791,6.6791,6.6791,6.6791,6.6791,6.6791,6.6791,6.6791,6.6791,6.6791,6.6791,6.6791,6.6791,6.4652,6.2731,6.1269,5.9811,5.9099,5.9099,5.9099,5.9099,5.9099,5.9099,5.9099,0.0,0.0,0.0,0.0,0.0,0.0,0.0,0.0,4.9458,0.0,0.0,0.0,0.0,0.0,0.0,0.0,5.3551,0.0,0.0,0.0,0.0,0.0,0.0,0.0,0.0,0.0,0.0,0.0,6.211,6.2076,6.24,6.24,6.24,6.24,6.24,6.24,6.24,6.24,6.24,6.24,6.24,6.24,6.24,6.24,6.24,6.24,6.24,6.24,6.24,6.24,6.24,6.2415,6.2854,6.3207,6.3612,6.4478,6.5155,6.5784,6.6203,6.6542,6.6791,6.6791,6.6791,6.6791,6.6791,6.6791,6.6791,6.6791,6.6791,6.6791,6.6791,6.6791,6.6791,6.6791,6.6791,6.6791,6.6791,6.6791,6.6791,6.6791,6.6791,6.6791,6.6791,6.6791,6.6791,6.6791,6.6791,6.6791,6.6791,6.6791,6.6791,6.6791,6.6791,6.6791,6.6791,6.6791,6.6791,6.6791,6.6791,6.6482,6.5712,6.3975,6.2365,6.1014,5.9732,5.9099,5.9099,5.9099,5.9099,5.9099,5.9099,5.9099,5.1399,0.0,0.0,0.0,0.0,0.0,0.0,0.0,0.0,0.0,0.0,0.0,0.0,0.0,0.0,0.0,0.0,5.4093,0.0,0.0,0.0,0.0,0.0,0.0,0.0,0.0,0.0,6.2076,6.211,6.2197,6.24,6.24,6.24,6.24,6.24,6.24,6.24,6.24,6.24,6.24,6.24,6.24,6.24,6.24,6.24,6.24,6.24,6.24,6.2434,6.2618,6.2685,6.2787,6.3734,6.4106,6.4241,6.5311,6.5852,6.6068,6.6609,6.6791,6.6791,6.6791,6.6791,6.6791,6.6791,6.6791,6.6791,6.6791,6.6791,6.6791,6.6791,6.6791,6.6791,6.6791,6.6791,6.6791,6.6791,6.6791,6.6791,6.6791,6.6791,6.6791,6.6791,6.6791,6.6791,6.6791,6.6791,6.6791,6.6791,6.6791,6.6791,6.6791,6.6791,6.6791,6.6791,6.6791,6.6791,6.6791,6.6791,6.6235,6.4936,6.3662,6.2365,6.1014,5.9732,5.9099,5.9099,5.9099,5.9099,5.9099,5.9099,5.9099,0.0,0.0,0.0,5.0658,0.0,0.0,0.0,0.0,5.0083,0.0,0.0,0.0,0.0,0.0,0.0,5.3315,0.0,0.0,0.0,0.0,0.0,0.0,0.0,0.0,0.0,0.0,5.9723,6.1231,6.1332,6.1637,6.2367,6.24,6.24,6.24,6.24,6.24,6.24,6.24,6.24,6.24,6.24,6.24,6.24,6.24,6.24,6.24,6.24,6.24,6.2448,6.3193,6.3443,6.3612,6.5053,6.5649,6.5649,6.5683,6.6136,6.6757,6.6791,6.6791,6.6791,6.6791,6.6791,6.6791,6.6791,6.6791,6.6791,6.6791,6.6791,6.6791,6.6791,6.6791,6.6791,6.6791,6.6791,6.6791,6.6791,6.6791,6.6791,6.6791,6.6791,6.6791,6.6791,6.6791,6.6791,6.6791,6.6791,6.6791,6.6791,6.6791,6.6791,6.6791,6.6791,6.6791,6.6791,6.6791,6.6791,6.6791,6.6791,6.6235,6.4936,6.3662,6.2365,6.1014,5.9732,5.9099,5.9099,5.9099,5.9099,5.9099,5.9099,5.9099,0.0,0.0,5.6652,5.3832,0.0,0.0,0.0,0.0,0.0,0.0,0.0,0.0,0.0,0.0,5.2401,5.2672,5.3145,0.0,0.0,0.0,0.0,0.0,0.0,0.0,0.0,0.0,0.0,6.0452,6.1434,6.2144,6.24,6.24,6.24,6.24,6.24,6.24,6.24,6.24,6.24,6.24,6.24,6.24,6.24,6.24,6.24,6.2434,6.2922,6.3125,6.3193,6.3937,6.4241,6.4343,6.529,6.5717,6.5784,6.6237,6.6609,6.6791,6.6791,6.6791,6.6791,6.6791,6.6791,6.6791,6.6791,6.6791,6.6791,6.6791,6.6791,6.6791,6.6791,6.6791,6.6791,6.6791,6.6791,6.6791,6.6791,6.6791,6.6791,6.6791,6.6791,6.6791,6.6791,6.6791,6.6791,6.6791,6.6791,6.6791,6.6791,6.6791,6.6791,6.6791,6.6791,6.6791,6.6791,6.6791,6.6791,6.6791,6.6791,6.6235,6.4936,6.3662,6.2365,6.1014,5.9732,5.9099,5.9099,5.9099,5.9099,5.9099,5.9099,5.9099,5.8606,5.8964,0.0,5.62,5.5277,0.0,5.19,0.0,0.0,0.0,0.0,0.0,0.0,0.0,0.0,5.3078,5.3348,5.3518,0.0,5.3518,0.0,0.0,0.0,0.0,0.0,0.0,5.9235,6.0047,6.1298,6.211,0.0,0.0,6.24,6.24,6.24,6.24,6.24,6.24,6.24,6.24,6.24,6.24,6.24,6.24,6.2516,6.2821,6.3274,6.3646,6.3971,6.4681,6.4986,6.5053,6.5797,6.6102,6.6136,6.6622,6.6791,6.6791,6.6791,6.6791,6.6791,6.6791,6.6791,6.6791,6.6791,6.6791,6.6859,6.7117,6.6994,6.6859,6.7096,6.6994,6.6791,6.6791,6.6791,6.6791,6.6791,6.6791,6.6791,6.6791,6.6791,6.6791,6.6791,6.6791,6.6791,6.6791,6.6791,6.6791,6.6791,6.6791,6.6791,6.6791,6.6791,6.6791,6.6791,6.6791,6.6791,6.6791,6.6791,6.644,6.5603,6.3928,6.2712,6.2098,6.0118,5.9219,5.9458,5.9219,5.9099,5.9099,5.9099,5.9099]}]]